Time,TemperatureF,DewpointF,PressureIn,WindDirection,WindDirectionDegrees,WindSpeedMPH,WindSpeedGustMPH,Humidity,HourlyPrecipIn,Conditions,Clouds,dailyrainin,SoftwareType,DateUTC
2013-07-04 00:00:00,53.9,51.3,30.12,West,266,0.3,1.2,91,0.00,CLR,OVC,0.00,WeatherDisplay:10.37,2013-07-04 07:00:00,
2013-07-04 00:01:00,53.9,51.3,30.12,West,266,0.0,0.0,91,0.00,CLR,OVC,0.00,WeatherDisplay:10.37,2013-07-04 07:01:00,
2013-07-04 00:03:00,53.9,51.3,30.12,West,266,0.0,0.0,91,0.00,CLR,OVC,0.00,WeatherDisplay:10.37,2013-07-04 07:03:00,
2013-07-04 00:04:00,53.8,51.2,30.12,West,266,0.0,0.0,91,0.00,CLR,OVC,0.00,WeatherDisplay:10.37,2013-07-04 07:04:00,
2013-07-04 00:05:00,53.8,51.2,30.12,West,266,0.0,0.0,91,0.00,CLR,OVC,0.00,WeatherDisplay:10.37,2013-07-04 07:05:00,
2013-07-04 00:06:00,53.7,51.1,30.12,West,266,0.0,0.0,91,0.00,CLR,OVC,0.00,WeatherDisplay:10.37,2013-07-04 07:06:00,
2013-07-04 00:09:00,53.7,51.1,30.12,West,266,0.0,0.0,91,0.00,CLR,OVC,0.00,WeatherDisplay:10.37,2013-07-04 07:09:00,
2013-07-04 00:10:00,53.7,51.1,30.12,West,266,0.0,0.0,91,0.00,CLR,OVC,0.00,WeatherDisplay:10.37,2013-07-04 07:10:00,
2013-07-04 00:12:00,53.7,51.1,30.12,West,266,0.0,0.0,91,0.00,CLR,OVC,0.00,WeatherDisplay:10.37,2013-07-04 07:12:00,
2013-07-04 00:14:00,53.7,51.1,30.12,West,266,0.0,0.0,91,0.00,CLR,OVC,0.00,WeatherDisplay:10.37,2013-07-04 07:14:00,
2013-07-04 00:15:00,53.6,51.0,30.12,West,266,0.0,0.0,91,0.00,CLR,OVC,0.00,WeatherDisplay:10.37,2013-07-04 07:15:00,
2013-07-04 00:17:00,53.6,51.0,30.12,West,266,0.0,1.2,91,0.00,CLR,OVC,0.00,WeatherDisplay:10.37,2013-07-04 07:17:00,
2013-07-04 00:19:00,53.5,50.9,30.12,West,266,0.1,1.0,91,0.00,CLR,OVC,0.00,WeatherDisplay:10.37,2013-07-04 07:19:00,
2013-07-04 00:20:00,53.5,50.9,30.12,West,266,0.4,2.3,91,0.00,CLR,OVC,0.00,WeatherDisplay:10.37,2013-07-04 07:20:00,
2013-07-04 00:21:00,53.5,50.9,30.12,West,266,0.0,0.0,91,0.00,CLR,OVC,0.00,WeatherDisplay:10.37,2013-07-04 07:21:00,
2013-07-04 00:22:00,53.5,50.9,30.12,West,266,0.0,0.0,91,0.00,CLR,OVC,0.00,WeatherDisplay:10.37,2013-07-04 07:22:00,
2013-07-04 00:24:00,53.5,51.2,30.12,West,266,0.7,3.5,92,0.00,CLR,OVC,0.00,WeatherDisplay:10.37,2013-07-04 07:24:00,
2013-07-04 00:25:00,53.5,51.2,30.12,West,266,0.0,1.2,92,0.00,CLR,OVC,0.00,WeatherDisplay:10.37,2013-07-04 07:25:00,
2013-07-04 00:26:00,53.4,51.1,30.12,West,266,0.3,2.3,92,0.00,CLR,OVC,0.00,WeatherDisplay:10.37,2013-07-04 07:26:00,
2013-07-04 00:27:00,53.4,51.1,30.12,West,266,0.0,0.0,92,0.00,CLR,OVC,0.00,WeatherDisplay:10.37,2013-07-04 07:27:00,
2013-07-04 00:29:00,53.4,51.1,30.12,West,266,0.0,1.0,92,0.00,CLR,OVC,0.00,WeatherDisplay:10.37,2013-07-04 07:29:00,
2013-07-04 00:30:00,53.4,51.1,30.12,West,266,0.1,1.2,92,0.00,CLR,OVC,0.00,WeatherDisplay:10.37,2013-07-04 07:30:00,
2013-07-04 00:31:00,53.4,51.1,30.11,West,266,0.1,0.0,92,0.00,CLR,OVC,0.00,WeatherDisplay:10.37,2013-07-04 07:31:00,
2013-07-04 00:32:00,53.3,51.0,30.12,West,266,0.3,1.2,92,0.00,CLR,OVC,0.00,WeatherDisplay:10.37,2013-07-04 07:32:00,
2013-07-04 00:34:00,53.3,51.0,30.12,West,266,0.0,0.0,92,0.00,CLR,OVC,0.00,WeatherDisplay:10.37,2013-07-04 07:34:00,
2013-07-04 00:35:00,53.3,51.0,30.12,West,266,0.0,0.0,92,0.00,CLR,OVC,0.00,WeatherDisplay:10.37,2013-07-04 07:35:00,
2013-07-04 00:36:00,53.3,51.0,30.12,West,266,0.0,0.0,92,0.00,CLR,OVC,0.00,WeatherDisplay:10.37,2013-07-04 07:36:00,
2013-07-04 00:38:00,53.3,51.0,30.12,West,266,0.0,0.0,92,0.00,CLR,OVC,0.00,WeatherDisplay:10.37,2013-07-04 07:38:00,
2013-07-04 00:40:00,53.3,51.0,30.12,West,273,0.0,3.5,92,0.00,CLR,OVC,0.00,WeatherDisplay:10.37,2013-07-04 07:40:00,
2013-07-04 00:42:00,53.3,51.0,30.12,West,273,0.0,0.0,92,0.00,CLR,OVC,0.00,WeatherDisplay:10.37,2013-07-04 07:42:00,
2013-07-04 00:43:00,53.2,50.9,30.12,West,273,0.0,0.0,92,0.00,CLR,OVC,0.00,WeatherDisplay:10.37,2013-07-04 07:43:00,
2013-07-04 00:45:00,53.2,50.9,30.12,West,273,0.1,0.0,92,0.00,CLR,OVC,0.00,WeatherDisplay:10.37,2013-07-04 07:45:00,
2013-07-04 00:46:00,53.2,50.9,30.12,West,273,0.1,1.2,92,0.00,CLR,OVC,0.00,WeatherDisplay:10.37,2013-07-04 07:46:00,
2013-07-04 00:47:00,53.2,50.9,30.12,West,273,0.0,0.0,92,0.00,CLR,OVC,0.00,WeatherDisplay:10.37,2013-07-04 07:47:00,
2013-07-04 00:48:00,53.2,50.9,30.12,West,273,0.0,0.0,92,0.00,CLR,OVC,0.00,WeatherDisplay:10.37,2013-07-04 07:48:00,
2013-07-04 00:50:00,53.1,50.8,30.12,West,273,0.0,0.0,92,0.00,CLR,OVC,0.00,WeatherDisplay:10.37,2013-07-04 07:50:00,
2013-07-04 00:51:00,53.1,50.8,30.12,West,273,0.0,0.0,92,0.00,CLR,OVC,0.00,WeatherDisplay:10.37,2013-07-04 07:51:00,
2013-07-04 00:52:00,53.1,50.8,30.12,West,273,0.0,0.0,92,0.00,CLR,OVC,0.00,WeatherDisplay:10.37,2013-07-04 07:52:00,
2013-07-04 00:53:00,53.1,50.8,30.12,West,273,0.0,0.0,92,0.00,CLR,OVC,0.00,WeatherDisplay:10.37,2013-07-04 07:53:00,
2013-07-04 00:55:00,53.1,50.8,30.12,West,273,0.0,1.2,92,0.00,CLR,OVC,0.00,WeatherDisplay:10.37,2013-07-04 07:55:00,
2013-07-04 00:56:00,53.1,50.8,30.12,West,273,0.1,0.0,92,0.00,CLR,OVC,0.00,WeatherDisplay:10.37,2013-07-04 07:56:00,
2013-07-04 00:57:00,53.1,50.8,30.12,West,273,0.0,1.2,92,0.00,CLR,OVC,0.00,WeatherDisplay:10.37,2013-07-04 07:57:00,
2013-07-04 00:58:00,53.1,50.8,30.12,West,273,0.0,0.0,92,0.00,CLR,OVC,0.00,WeatherDisplay:10.37,2013-07-04 07:58:00,
2013-07-04 01:01:00,53.0,50.7,30.12,West,273,0.0,0.0,92,0.00,CLR,OVC,0.00,WeatherDisplay:10.37,2013-07-04 08:01:00,
2013-07-04 01:02:00,53.0,50.7,30.12,North,355,1.3,1.3,92,0.00,CLR,OVC,0.00,WeatherDisplay:10.37,2013-07-04 08:02:00,
2013-07-04 01:03:00,53.0,50.7,30.12,North,5,0.2,4.6,92,0.00,CLR,OVC,0.00,WeatherDisplay:10.37,2013-07-04 08:03:00,
2013-07-04 01:04:00,53.0,50.7,30.12,NNE,12,0.6,2.3,92,0.00,CLR,OVC,0.00,WeatherDisplay:10.37,2013-07-04 08:04:00,
2013-07-04 01:06:00,53.0,51.0,30.12,NNE,12,0.0,2.3,93,0.00,CLR,OVC,0.00,WeatherDisplay:10.37,2013-07-04 08:06:00,
2013-07-04 01:08:00,53.0,51.0,30.12,NNE,12,0.0,0.0,93,0.00,CLR,OVC,0.00,WeatherDisplay:10.37,2013-07-04 08:08:00,
2013-07-04 01:09:00,53.0,50.7,30.12,NNE,12,0.0,0.0,92,0.00,CLR,OVC,0.00,WeatherDisplay:10.37,2013-07-04 08:09:00,
2013-07-04 01:12:00,53.0,50.7,30.12,NNE,12,0.0,0.0,92,0.00,CLR,OVC,0.00,WeatherDisplay:10.37,2013-07-04 08:12:00,
2013-07-04 01:13:00,53.0,50.7,30.12,NNE,12,0.1,1.2,92,0.00,CLR,OVC,0.00,WeatherDisplay:10.37,2013-07-04 08:13:00,
2013-07-04 01:14:00,52.9,50.6,30.12,NNE,12,0.0,0.0,92,0.00,CLR,OVC,0.00,WeatherDisplay:10.37,2013-07-04 08:14:00,
2013-07-04 01:17:00,52.9,50.6,30.12,NNE,12,0.0,0.0,92,0.00,CLR,OVC,0.00,WeatherDisplay:10.37,2013-07-04 08:17:00,
2013-07-04 01:18:00,52.9,50.6,30.12,NNE,12,0.0,0.0,92,0.00,CLR,OVC,0.00,WeatherDisplay:10.37,2013-07-04 08:18:00,
2013-07-04 01:19:00,52.8,50.5,30.12,NNE,12,0.0,0.0,92,0.00,CLR,OVC,0.00,WeatherDisplay:10.37,2013-07-04 08:19:00,
2013-07-04 01:22:00,52.8,50.5,30.12,NNE,12,0.0,0.0,92,0.00,CLR,OVC,0.00,WeatherDisplay:10.37,2013-07-04 08:22:00,
2013-07-04 01:23:00,52.8,50.5,30.12,NNE,12,0.1,0.0,92,0.00,CLR,OVC,0.00,WeatherDisplay:10.37,2013-07-04 08:23:00,
2013-07-04 01:24:00,52.8,50.5,30.12,NNE,12,0.1,1.2,92,0.00,CLR,OVC,0.00,WeatherDisplay:10.37,2013-07-04 08:24:00,
2013-07-04 01:27:00,52.8,50.5,30.12,NNE,12,1.0,3.5,92,0.00,CLR,OVC,0.00,WeatherDisplay:10.37,2013-07-04 08:27:00,
2013-07-04 01:29:00,52.8,50.5,30.12,NNE,12,0.0,1.2,92,0.00,CLR,OVC,0.00,WeatherDisplay:10.37,2013-07-04 08:29:00,
2013-07-04 01:30:00,52.8,50.5,30.12,NNE,12,0.4,1.2,92,0.00,CLR,OVC,0.00,WeatherDisplay:10.37,2013-07-04 08:30:00,
2013-07-04 01:32:00,52.9,50.6,30.11,NNE,12,0.0,0.0,92,0.00,CLR,OVC,0.00,WeatherDisplay:10.37,2013-07-04 08:32:00,
2013-07-04 01:34:00,52.8,50.5,30.11,NNE,12,0.0,0.0,92,0.00,CLR,OVC,0.00,WeatherDisplay:10.37,2013-07-04 08:34:00,
2013-07-04 01:35:00,52.9,50.6,30.12,NNE,12,0.0,0.0,92,0.00,CLR,OVC,0.00,WeatherDisplay:10.37,2013-07-04 08:35:00,
2013-07-04 01:37:00,52.8,50.5,30.11,NNE,12,0.4,1.2,92,0.00,CLR,OVC,0.00,WeatherDisplay:10.37,2013-07-04 08:37:00,
2013-07-04 01:38:00,52.9,50.6,30.11,NNE,12,0.4,2.3,92,0.00,CLR,OVC,0.00,WeatherDisplay:10.37,2013-07-04 08:38:00,
2013-07-04 01:40:00,52.8,50.5,30.12,NNE,12,0.0,0.0,92,0.00,CLR,OVC,0.00,WeatherDisplay:10.37,2013-07-04 08:40:00,
2013-07-04 01:42:00,52.8,50.5,30.12,NNE,12,0.0,0.0,92,0.00,CLR,OVC,0.00,WeatherDisplay:10.37,2013-07-04 08:42:00,
2013-07-04 01:43:00,52.8,50.5,30.12,NNE,12,0.0,0.0,92,0.00,CLR,OVC,0.00,WeatherDisplay:10.37,2013-07-04 08:43:00,
2013-07-04 01:45:00,52.8,50.5,30.12,North,359,1.0,3.0,92,0.00,CLR,OVC,0.00,WeatherDisplay:10.37,2013-07-04 08:45:00,
2013-07-04 01:46:00,52.8,50.5,30.12,West,274,0.0,2.3,92,0.00,CLR,OVC,0.00,WeatherDisplay:10.37,2013-07-04 08:46:00,
2013-07-04 01:47:00,52.8,50.5,30.12,NW,306,0.0,1.0,92,0.00,CLR,OVC,0.00,WeatherDisplay:10.37,2013-07-04 08:47:00,
2013-07-04 01:48:00,52.8,50.5,30.12,NW,307,0.2,1.2,92,0.00,CLR,OVC,0.00,WeatherDisplay:10.37,2013-07-04 08:48:00,
2013-07-04 01:50:00,52.7,50.4,30.12,West,264,0.0,0.0,92,0.00,CLR,OVC,0.00,WeatherDisplay:10.37,2013-07-04 08:50:00,
2013-07-04 01:51:00,52.7,50.4,30.12,West,264,0.0,0.0,92,0.00,CLR,OVC,0.00,WeatherDisplay:10.37,2013-07-04 08:51:00,
2013-07-04 01:53:00,52.7,50.4,30.12,West,279,0.2,1.2,92,0.00,CLR,OVC,0.00,WeatherDisplay:10.37,2013-07-04 08:53:00,
2013-07-04 01:56:00,52.7,50.7,30.12,WNW,289,0.0,0.0,93,0.00,CLR,OVC,0.00,WeatherDisplay:10.37,2013-07-04 08:56:00,
2013-07-04 01:58:00,52.6,50.6,30.12,NNE,21,1.0,4.6,93,0.00,CLR,OVC,0.00,WeatherDisplay:10.37,2013-07-04 08:58:00,
2013-07-04 02:01:00,52.6,50.6,30.12,NNE,21,0.0,0.0,93,0.00,CLR,OVC,0.00,WeatherDisplay:10.37,2013-07-04 09:01:00,
2013-07-04 02:03:00,52.6,50.6,30.12,NNE,22,0.4,2.3,93,0.00,CLR,OVC,0.00,WeatherDisplay:10.37,2013-07-04 09:03:00,
2013-07-04 02:06:00,52.5,50.5,30.12,NNE,22,0.0,1.0,93,0.00,CLR,OVC,0.00,WeatherDisplay:10.37,2013-07-04 09:06:00,
2013-07-04 02:07:00,52.5,50.5,30.12,NNE,22,0.0,1.2,93,0.00,CLR,OVC,0.00,WeatherDisplay:10.37,2013-07-04 09:07:00,
2013-07-04 02:08:00,52.4,50.4,30.12,NNE,22,0.0,0.0,93,0.00,CLR,OVC,0.00,WeatherDisplay:10.37,2013-07-04 09:08:00,
2013-07-04 02:11:00,52.4,50.4,30.12,NNE,22,0.0,0.0,93,0.00,CLR,OVC,0.00,WeatherDisplay:10.37,2013-07-04 09:11:00,
2013-07-04 02:13:00,52.4,50.4,30.12,NNE,22,0.0,0.0,93,0.00,CLR,OVC,0.00,WeatherDisplay:10.37,2013-07-04 09:13:00,
2013-07-04 02:14:00,52.4,50.4,30.12,NNE,22,1.0,3.5,93,0.00,CLR,OVC,0.00,WeatherDisplay:10.37,2013-07-04 09:14:00,
2013-07-04 02:16:00,52.3,50.3,30.12,NNE,22,0.0,0.0,93,0.00,CLR,OVC,0.00,WeatherDisplay:10.37,2013-07-04 09:16:00,
2013-07-04 02:18:00,52.3,50.3,30.12,NNE,22,0.1,3.5,93,0.00,CLR,OVC,0.00,WeatherDisplay:10.37,2013-07-04 09:18:00,
2013-07-04 02:19:00,52.3,50.3,30.12,NNE,22,0.0,0.0,93,0.00,CLR,OVC,0.00,WeatherDisplay:10.37,2013-07-04 09:19:00,
2013-07-04 02:21:00,52.3,50.3,30.12,NNE,22,0.7,1.2,93,0.00,CLR,OVC,0.00,WeatherDisplay:10.37,2013-07-04 09:21:00,
2013-07-04 02:23:00,52.3,50.3,30.12,NNE,22,0.0,0.0,93,0.00,CLR,OVC,0.00,WeatherDisplay:10.37,2013-07-04 09:23:00,
2013-07-04 02:24:00,52.3,50.3,30.12,NNE,22,0.0,0.0,93,0.00,CLR,OVC,0.00,WeatherDisplay:10.37,2013-07-04 09:24:00,
2013-07-04 02:26:00,52.3,50.3,30.12,NNE,22,0.0,0.0,93,0.00,CLR,OVC,0.00,WeatherDisplay:10.37,2013-07-04 09:26:00,
2013-07-04 02:28:00,52.2,50.2,30.12,NNE,22,0.0,0.0,93,0.00,CLR,OVC,0.00,WeatherDisplay:10.37,2013-07-04 09:28:00,
2013-07-04 02:29:00,52.2,50.2,30.12,NNE,22,0.0,0.0,93,0.00,CLR,OVC,0.00,WeatherDisplay:10.37,2013-07-04 09:29:00,
2013-07-04 02:32:00,52.2,50.2,30.12,NNE,22,0.0,0.0,93,0.00,CLR,OVC,0.00,WeatherDisplay:10.37,2013-07-04 09:32:00,
2013-07-04 02:33:00,52.1,50.1,30.12,NNE,22,0.0,0.0,93,0.00,CLR,OVC,0.00,WeatherDisplay:10.37,2013-07-04 09:33:00,
2013-07-04 02:34:00,52.1,50.1,30.12,NNE,22,0.0,0.0,93,0.00,CLR,OVC,0.00,WeatherDisplay:10.37,2013-07-04 09:34:00,
2013-07-04 02:35:00,52.1,50.1,30.12,NNE,22,0.0,0.0,93,0.00,CLR,OVC,0.00,WeatherDisplay:10.37,2013-07-04 09:35:00,
2013-07-04 02:37:00,52.1,50.4,30.12,NNE,22,0.0,0.0,94,0.00,CLR,OVC,0.00,WeatherDisplay:10.37,2013-07-04 09:37:00,
2013-07-04 02:39:00,52.1,50.4,30.12,NNE,22,0.0,0.0,94,0.00,CLR,OVC,0.00,WeatherDisplay:10.37,2013-07-04 09:39:00,
2013-07-04 02:40:00,52.1,50.4,30.12,NNE,22,0.0,0.0,94,0.00,CLR,OVC,0.00,WeatherDisplay:10.37,2013-07-04 09:40:00,
2013-07-04 02:42:00,52.0,50.3,30.12,NNE,22,0.0,0.0,94,0.00,CLR,OVC,0.00,WeatherDisplay:10.37,2013-07-04 09:42:00,
2013-07-04 02:44:00,51.9,49.9,30.12,NNE,22,0.0,0.0,93,0.00,CLR,OVC,0.00,WeatherDisplay:10.37,2013-07-04 09:44:00,
2013-07-04 02:45:00,51.9,49.9,30.12,NNE,22,0.0,0.0,93,0.00,CLR,OVC,0.00,WeatherDisplay:10.37,2013-07-04 09:45:00,
2013-07-04 02:48:00,51.9,49.9,30.12,NNE,22,0.0,0.0,93,0.00,CLR,OVC,0.00,WeatherDisplay:10.37,2013-07-04 09:48:00,
2013-07-04 02:49:00,51.9,49.9,30.12,NNE,22,0.0,0.0,93,0.00,CLR,OVC,0.00,WeatherDisplay:10.37,2013-07-04 09:49:00,
2013-07-04 02:50:00,51.8,49.8,30.13,NNE,22,0.0,0.0,93,0.00,CLR,OVC,0.00,WeatherDisplay:10.37,2013-07-04 09:50:00,
2013-07-04 02:53:00,51.8,49.8,30.12,NNE,22,0.0,0.0,93,0.00,CLR,OVC,0.00,WeatherDisplay:10.37,2013-07-04 09:53:00,
2013-07-04 02:54:00,51.8,50.1,30.13,NNE,22,0.0,0.0,94,0.00,CLR,OVC,0.00,WeatherDisplay:10.37,2013-07-04 09:54:00,
2013-07-04 02:55:00,51.8,49.8,30.13,NNE,22,0.0,0.0,93,0.00,CLR,OVC,0.00,WeatherDisplay:10.37,2013-07-04 09:55:00,
2013-07-04 02:56:00,51.7,50.0,30.13,NNE,22,0.0,0.0,94,0.00,CLR,OVC,0.00,WeatherDisplay:10.37,2013-07-04 09:56:00,
2013-07-04 02:58:00,51.7,50.0,30.12,NNE,22,0.1,1.2,94,0.00,CLR,OVC,0.00,WeatherDisplay:10.37,2013-07-04 09:58:00,
2013-07-04 02:59:00,51.7,50.0,30.12,NNE,22,0.0,0.0,94,0.00,CLR,OVC,0.00,WeatherDisplay:10.37,2013-07-04 09:59:00,
2013-07-04 03:00:00,51.7,50.0,30.13,NNE,22,0.2,0.0,94,0.00,CLR,OVC,0.00,WeatherDisplay:10.37,2013-07-04 10:00:00,
2013-07-04 03:01:00,51.7,50.0,30.13,NNE,22,0.2,1.2,94,0.00,CLR,OVC,0.00,WeatherDisplay:10.37,2013-07-04 10:01:00,
2013-07-04 03:02:00,51.7,50.0,30.12,NNE,22,0.0,0.0,94,0.00,CLR,OVC,0.00,WeatherDisplay:10.37,2013-07-04 10:02:00,
2013-07-04 03:03:00,51.7,50.0,30.13,NNE,22,0.2,1.2,94,0.00,CLR,OVC,0.00,WeatherDisplay:10.37,2013-07-04 10:03:00,
2013-07-04 03:04:00,51.7,50.0,30.13,NNE,22,0.2,1.2,94,0.00,CLR,OVC,0.00,WeatherDisplay:10.37,2013-07-04 10:04:00,
2013-07-04 03:05:00,51.7,50.0,30.12,NNE,22,0.0,0.0,94,0.00,CLR,OVC,0.00,WeatherDisplay:10.37,2013-07-04 10:05:00,
2013-07-04 03:06:00,51.7,50.0,30.13,NNE,22,0.0,0.0,94,0.00,CLR,OVC,0.00,WeatherDisplay:10.37,2013-07-04 10:06:00,
2013-07-04 03:07:00,51.7,50.0,30.13,NNE,22,0.0,0.0,94,0.00,CLR,OVC,0.00,WeatherDisplay:10.37,2013-07-04 10:07:00,
2013-07-04 03:08:00,51.7,50.0,30.13,NNE,22,0.0,0.0,94,0.00,CLR,OVC,0.00,WeatherDisplay:10.37,2013-07-04 10:08:00,
2013-07-04 03:09:00,51.7,50.0,30.13,NNE,22,0.0,0.0,94,0.00,CLR,OVC,0.00,WeatherDisplay:10.37,2013-07-04 10:09:00,
2013-07-04 03:10:00,51.7,50.0,30.13,NNE,22,0.0,0.0,94,0.00,CLR,OVC,0.00,WeatherDisplay:10.37,2013-07-04 10:10:00,
2013-07-04 03:11:00,51.7,50.0,30.13,NNE,22,0.0,1.2,94,0.00,CLR,OVC,0.00,WeatherDisplay:10.37,2013-07-04 10:11:00,
2013-07-04 03:12:00,51.7,50.0,30.13,NNE,22,0.0,0.0,94,0.00,CLR,OVC,0.00,WeatherDisplay:10.37,2013-07-04 10:12:00,
2013-07-04 03:13:00,51.7,50.0,30.12,NNE,22,0.0,0.0,94,0.00,CLR,OVC,0.00,WeatherDisplay:10.37,2013-07-04 10:13:00,
2013-07-04 03:15:00,51.7,50.0,30.13,NNE,22,0.0,0.0,94,0.00,CLR,OVC,0.00,WeatherDisplay:10.37,2013-07-04 10:15:00,
2013-07-04 03:16:00,51.7,50.0,30.13,NNE,22,0.0,0.0,94,0.00,CLR,OVC,0.00,WeatherDisplay:10.37,2013-07-04 10:16:00,
2013-07-04 03:17:00,51.7,50.0,30.12,NNE,22,0.0,0.0,94,0.00,CLR,OVC,0.00,WeatherDisplay:10.37,2013-07-04 10:17:00,
2013-07-04 03:18:00,51.7,50.0,30.13,NNE,22,0.0,0.0,94,0.00,CLR,OVC,0.00,WeatherDisplay:10.37,2013-07-04 10:18:00,
2013-07-04 03:21:00,51.7,50.0,30.13,NNE,22,0.0,0.0,94,0.00,CLR,OVC,0.00,WeatherDisplay:10.37,2013-07-04 10:21:00,
2013-07-04 03:22:00,51.7,50.0,30.13,NNE,22,0.0,1.2,94,0.00,CLR,OVC,0.00,WeatherDisplay:10.37,2013-07-04 10:22:00,
2013-07-04 03:23:00,51.7,50.0,30.13,NNE,22,0.0,0.0,94,0.00,CLR,OVC,0.00,WeatherDisplay:10.37,2013-07-04 10:23:00,
2013-07-04 03:26:00,51.7,50.0,30.13,NNE,22,0.0,0.0,94,0.00,CLR,OVC,0.00,WeatherDisplay:10.37,2013-07-04 10:26:00,
2013-07-04 03:27:00,51.7,50.0,30.13,NNE,22,0.0,0.0,94,0.00,CLR,OVC,0.00,WeatherDisplay:10.37,2013-07-04 10:27:00,
2013-07-04 03:28:00,51.7,49.7,30.13,NNE,22,0.0,0.0,93,0.00,CLR,OVC,0.00,WeatherDisplay:10.37,2013-07-04 10:28:00,
2013-07-04 03:31:00,51.7,49.7,30.12,NNE,22,0.0,0.0,93,0.00,CLR,OVC,0.00,WeatherDisplay:10.37,2013-07-04 10:31:00,
2013-07-04 03:32:00,51.8,49.8,30.13,NNE,22,0.1,0.0,93,0.00,CLR,OVC,0.00,WeatherDisplay:10.37,2013-07-04 10:32:00,
2013-07-04 03:33:00,51.8,49.8,30.13,NNE,22,0.0,1.2,93,0.00,CLR,OVC,0.00,WeatherDisplay:10.37,2013-07-04 10:33:00,
2013-07-04 03:36:00,51.8,49.8,30.13,NNE,22,0.0,1.2,93,0.00,CLR,OVC,0.00,WeatherDisplay:10.37,2013-07-04 10:36:00,
2013-07-04 03:38:00,51.9,49.9,30.13,NNE,22,0.0,0.0,93,0.00,CLR,OVC,0.00,WeatherDisplay:10.37,2013-07-04 10:38:00,
2013-07-04 03:41:00,51.9,49.9,30.13,NNE,22,0.4,2.3,93,0.00,CLR,OVC,0.00,WeatherDisplay:10.37,2013-07-04 10:41:00,
2013-07-04 03:43:00,51.9,49.9,30.12,NNE,22,0.0,0.0,93,0.00,CLR,OVC,0.00,WeatherDisplay:10.37,2013-07-04 10:43:00,
2013-07-04 03:44:00,51.9,49.9,30.12,NNE,22,0.0,0.0,93,0.00,CLR,OVC,0.00,WeatherDisplay:10.37,2013-07-04 10:44:00,
2013-07-04 03:46:00,51.9,49.9,30.12,NNE,22,0.0,0.0,93,0.00,CLR,OVC,0.00,WeatherDisplay:10.37,2013-07-04 10:46:00,
2013-07-04 03:49:00,51.9,49.9,30.12,NNE,22,0.0,0.0,93,0.00,CLR,OVC,0.00,WeatherDisplay:10.37,2013-07-04 10:49:00,
2013-07-04 03:51:00,51.9,49.9,30.12,NNE,22,0.0,0.0,93,0.00,CLR,OVC,0.00,WeatherDisplay:10.37,2013-07-04 10:51:00,
2013-07-04 03:52:00,51.9,49.9,30.12,NNE,22,0.0,0.0,93,0.00,CLR,OVC,0.00,WeatherDisplay:10.37,2013-07-04 10:52:00,
2013-07-04 03:54:00,51.9,49.9,30.12,NNE,22,0.0,0.0,93,0.00,CLR,OVC,0.00,WeatherDisplay:10.37,2013-07-04 10:54:00,
2013-07-04 03:57:00,52.0,50.0,30.12,NNE,22,0.0,0.0,93,0.00,CLR,OVC,0.00,WeatherDisplay:10.37,2013-07-04 10:57:00,
2013-07-04 03:59:00,52.0,50.0,30.12,NNE,22,0.0,0.0,93,0.00,CLR,OVC,0.00,WeatherDisplay:10.37,2013-07-04 10:59:00,
2013-07-04 04:02:00,52.0,50.0,30.12,NNE,22,0.0,0.0,93,0.00,CLR,OVC,0.00,WeatherDisplay:10.37,2013-07-04 11:02:00,
2013-07-04 04:03:00,52.1,50.1,30.12,NNE,22,0.0,0.0,93,0.00,CLR,OVC,0.00,WeatherDisplay:10.37,2013-07-04 11:03:00,
2013-07-04 04:04:00,52.1,50.1,30.12,NNE,22,0.0,0.0,93,0.00,CLR,OVC,0.00,WeatherDisplay:10.37,2013-07-04 11:04:00,
2013-07-04 04:07:00,52.1,50.1,30.12,NNE,22,0.0,0.0,93,0.00,CLR,OVC,0.00,WeatherDisplay:10.37,2013-07-04 11:07:00,
2013-07-04 04:08:00,52.1,50.1,30.12,NNE,22,0.0,0.0,93,0.00,CLR,OVC,0.00,WeatherDisplay:10.37,2013-07-04 11:08:00,
2013-07-04 04:09:00,52.1,50.1,30.12,NNE,22,0.0,0.0,93,0.00,CLR,OVC,0.00,WeatherDisplay:10.37,2013-07-04 11:09:00,
2013-07-04 04:10:00,52.1,49.8,30.12,NNE,22,0.0,0.0,92,0.00,CLR,OVC,0.00,WeatherDisplay:10.37,2013-07-04 11:10:00,
2013-07-04 04:12:00,52.1,49.8,30.12,NNE,22,0.0,0.0,92,0.00,CLR,OVC,0.00,WeatherDisplay:10.37,2013-07-04 11:12:00,
2013-07-04 04:13:00,52.1,49.8,30.12,NNE,22,0.0,0.0,92,0.00,CLR,OVC,0.00,WeatherDisplay:10.37,2013-07-04 11:13:00,
2013-07-04 04:14:00,52.1,49.8,30.12,NNE,22,0.0,1.2,92,0.00,CLR,OVC,0.00,WeatherDisplay:10.37,2013-07-04 11:14:00,
2013-07-04 04:15:00,52.1,49.8,30.12,NNE,22,0.0,0.0,92,0.00,CLR,OVC,0.00,WeatherDisplay:10.37,2013-07-04 11:15:00,
2013-07-04 04:18:00,52.1,49.8,30.12,NNE,22,0.3,2.3,92,0.00,CLR,OVC,0.00,WeatherDisplay:10.37,2013-07-04 11:18:00,
2013-07-04 04:19:00,52.1,49.8,30.12,NNE,22,0.0,0.0,92,0.00,CLR,OVC,0.00,WeatherDisplay:10.37,2013-07-04 11:19:00,
2013-07-04 04:20:00,52.1,49.8,30.12,NNE,22,0.0,0.0,92,0.00,CLR,OVC,0.00,WeatherDisplay:10.37,2013-07-04 11:20:00,
2013-07-04 04:21:00,52.1,49.8,30.12,NNE,22,0.0,0.0,92,0.00,CLR,OVC,0.00,WeatherDisplay:10.37,2013-07-04 11:21:00,
2013-07-04 04:23:00,52.1,49.8,30.12,NNE,22,0.0,0.0,92,0.00,CLR,OVC,0.00,WeatherDisplay:10.37,2013-07-04 11:23:00,
2013-07-04 04:24:00,52.1,49.8,30.12,NNE,22,0.0,0.0,92,0.00,CLR,OVC,0.00,WeatherDisplay:10.37,2013-07-04 11:24:00,
2013-07-04 04:25:00,52.1,49.8,30.12,NNE,22,0.0,0.0,92,0.00,CLR,OVC,0.00,WeatherDisplay:10.37,2013-07-04 11:25:00,
2013-07-04 04:26:00,52.1,49.8,30.12,NNE,22,0.0,0.0,92,0.00,CLR,OVC,0.00,WeatherDisplay:10.37,2013-07-04 11:26:00,
2013-07-04 04:29:00,52.1,49.8,30.12,NNE,22,0.0,0.0,92,0.00,CLR,OVC,0.00,WeatherDisplay:10.37,2013-07-04 11:29:00,
2013-07-04 04:30:00,52.1,49.6,30.13,NNE,22,0.0,0.0,91,0.00,CLR,OVC,0.00,WeatherDisplay:10.37,2013-07-04 11:30:00,
2013-07-04 04:31:00,52.1,49.6,30.12,NNE,22,0.0,0.0,91,0.00,CLR,OVC,0.00,WeatherDisplay:10.37,2013-07-04 11:31:00,
2013-07-04 04:34:00,52.1,49.6,30.13,NNE,22,0.0,1.2,91,0.00,CLR,OVC,0.00,WeatherDisplay:10.37,2013-07-04 11:34:00,
2013-07-04 04:35:00,52.1,49.6,30.13,NNE,22,0.0,1.2,91,0.00,CLR,OVC,0.00,WeatherDisplay:10.37,2013-07-04 11:35:00,
2013-07-04 04:36:00,52.1,49.6,30.13,NNE,22,0.0,1.2,91,0.00,CLR,OVC,0.00,WeatherDisplay:10.37,2013-07-04 11:36:00,
2013-07-04 04:39:00,52.1,49.6,30.12,NNE,22,0.0,0.0,91,0.00,CLR,OVC,0.00,WeatherDisplay:10.37,2013-07-04 11:39:00,
2013-07-04 04:40:00,52.1,49.6,30.12,NNE,22,0.0,0.0,91,0.00,CLR,OVC,0.00,WeatherDisplay:10.37,2013-07-04 11:40:00,
2013-07-04 04:42:00,52.1,49.6,30.13,NNE,22,0.0,0.0,91,0.00,CLR,OVC,0.00,WeatherDisplay:10.37,2013-07-04 11:42:00,
2013-07-04 04:45:00,52.1,49.6,30.13,NNE,22,0.0,0.0,91,0.00,CLR,OVC,0.00,WeatherDisplay:10.37,2013-07-04 11:45:00,
2013-07-04 04:47:00,52.0,49.5,30.12,NNE,22,0.1,0.0,91,0.00,CLR,OVC,0.00,WeatherDisplay:10.37,2013-07-04 11:47:00,
2013-07-04 04:50:00,52.0,49.7,30.12,NNE,22,0.0,0.0,92,0.00,CLR,OVC,0.00,WeatherDisplay:10.37,2013-07-04 11:50:00,
2013-07-04 04:52:00,51.9,49.6,30.12,NNE,22,0.0,0.0,92,0.00,CLR,OVC,0.00,WeatherDisplay:10.37,2013-07-04 11:52:00,
2013-07-04 04:55:00,51.8,49.5,30.13,NNE,22,0.0,0.0,92,0.00,CLR,OVC,0.00,WeatherDisplay:10.37,2013-07-04 11:55:00,
2013-07-04 04:56:00,51.8,49.5,30.13,NNE,22,0.0,0.0,92,0.00,CLR,OVC,0.00,WeatherDisplay:10.37,2013-07-04 11:56:00,
2013-07-04 04:58:00,51.8,49.5,30.13,NNE,22,0.0,0.0,92,0.00,CLR,OVC,0.00,WeatherDisplay:10.37,2013-07-04 11:58:00,
2013-07-04 05:00:00,51.7,49.5,30.12,NNE,22,0.0,0.0,92,0.00,CLR,OVC,0.00,WeatherDisplay:10.37,2013-07-04 12:00:00,
2013-07-04 05:01:00,51.7,49.5,30.12,NNE,22,0.0,0.0,92,0.00,CLR,OVC,0.00,WeatherDisplay:10.37,2013-07-04 12:01:00,
2013-07-04 05:03:00,51.7,49.7,30.13,NNE,22,0.0,0.0,93,0.00,CLR,OVC,0.00,WeatherDisplay:10.37,2013-07-04 12:03:00,
2013-07-04 05:05:00,51.6,49.6,30.13,NNE,22,0.0,0.0,93,0.00,CLR,OVC,0.00,WeatherDisplay:10.37,2013-07-04 12:05:00,
2013-07-04 05:06:00,51.6,49.6,30.13,NNE,22,0.0,0.0,93,0.00,CLR,OVC,0.00,WeatherDisplay:10.37,2013-07-04 12:06:00,
2013-07-04 05:08:00,51.6,49.6,30.13,NNE,22,0.0,0.0,93,0.00,CLR,OVC,0.00,WeatherDisplay:10.37,2013-07-04 12:08:00,
2013-07-04 05:10:00,51.5,49.5,30.12,NNE,22,0.0,0.0,93,0.00,CLR,OVC,0.00,WeatherDisplay:10.37,2013-07-04 12:10:00,
2013-07-04 05:11:00,51.5,49.5,30.12,NNE,22,0.0,0.0,93,0.00,CLR,OVC,0.00,WeatherDisplay:10.37,2013-07-04 12:11:00,
2013-07-04 05:14:00,51.5,49.5,30.13,NNE,22,0.0,1.2,93,0.00,CLR,OVC,0.00,WeatherDisplay:10.37,2013-07-04 12:14:00,
2013-07-04 05:16:00,51.5,49.5,30.12,NNE,22,0.0,0.0,93,0.00,CLR,OVC,0.00,WeatherDisplay:10.37,2013-07-04 12:16:00,
2013-07-04 05:17:00,51.5,49.5,30.12,NNE,22,0.0,0.0,93,0.00,CLR,OVC,0.00,WeatherDisplay:10.37,2013-07-04 12:17:00,
2013-07-04 05:19:00,51.4,49.4,30.12,NNE,22,0.0,1.2,93,0.00,CLR,OVC,0.00,WeatherDisplay:10.37,2013-07-04 12:19:00,
2013-07-04 05:21:00,51.4,49.4,30.13,NNE,22,0.1,1.2,93,0.00,CLR,OVC,0.00,WeatherDisplay:10.37,2013-07-04 12:21:00,
2013-07-04 05:22:00,51.4,49.4,30.13,NNE,22,0.0,0.0,93,0.00,CLR,OVC,0.00,WeatherDisplay:10.37,2013-07-04 12:22:00,
2013-07-04 05:24:00,51.4,49.4,30.13,NNE,22,0.0,0.0,93,0.00,CLR,OVC,0.00,WeatherDisplay:10.37,2013-07-04 12:24:00,
2013-07-04 05:27:00,51.4,49.4,30.13,NNE,22,0.0,0.0,93,0.00,CLR,OVC,0.00,WeatherDisplay:10.37,2013-07-04 12:27:00,
2013-07-04 05:30:00,51.4,49.4,30.13,NNE,22,0.0,0.0,93,0.00,CLR,OVC,0.00,WeatherDisplay:10.37,2013-07-04 12:30:00,
2013-07-04 05:32:00,51.4,49.4,30.13,NNE,22,0.0,0.0,93,0.00,CLR,OVC,0.00,WeatherDisplay:10.37,2013-07-04 12:32:00,
2013-07-04 05:33:00,51.4,49.4,30.13,NNE,22,0.0,0.0,93,0.00,CLR,OVC,0.00,WeatherDisplay:10.37,2013-07-04 12:33:00,
2013-07-04 05:35:00,51.4,49.4,30.13,NNE,22,0.3,2.3,93,0.00,CLR,OVC,0.00,WeatherDisplay:10.37,2013-07-04 12:35:00,
2013-07-04 05:37:00,51.4,49.4,30.13,NNE,22,0.0,0.0,93,0.00,CLR,OVC,0.00,WeatherDisplay:10.37,2013-07-04 12:37:00,
2013-07-04 05:38:00,51.5,49.5,30.13,NNE,22,0.6,2.3,93,0.00,CLR,OVC,0.00,WeatherDisplay:10.37,2013-07-04 12:38:00,
2013-07-04 05:40:00,51.5,49.5,30.13,North,355,0.0,4.6,93,0.00,CLR,OVC,0.00,WeatherDisplay:10.37,2013-07-04 12:40:00,
2013-07-04 05:42:00,51.6,49.6,30.13,North,355,0.0,0.0,93,0.00,CLR,OVC,0.00,WeatherDisplay:10.37,2013-07-04 12:42:00,
2013-07-04 05:43:00,51.6,49.6,30.13,North,355,0.0,0.0,93,0.00,CLR,OVC,0.00,WeatherDisplay:10.37,2013-07-04 12:43:00,
2013-07-04 05:45:00,51.6,49.6,30.13,North,355,0.1,1.2,93,0.00,CLR,OVC,0.00,WeatherDisplay:10.37,2013-07-04 12:45:00,
2013-07-04 05:48:00,51.7,49.7,30.13,North,355,0.4,2.3,93,0.00,CLR,OVC,0.00,WeatherDisplay:10.37,2013-07-04 12:48:00,
2013-07-04 05:50:00,51.8,49.8,30.13,North,355,0.0,0.0,93,0.00,CLR,OVC,0.00,WeatherDisplay:10.37,2013-07-04 12:50:00,
2013-07-04 05:53:00,51.9,49.9,30.13,North,355,0.1,0.0,93,0.00,CLR,OVC,0.00,WeatherDisplay:10.37,2013-07-04 12:53:00,
2013-07-04 05:55:00,52.0,50.0,30.13,North,355,0.0,0.0,93,0.00,CLR,OVC,0.00,WeatherDisplay:10.37,2013-07-04 12:55:00,
2013-07-04 05:58:00,52.1,50.1,30.13,North,355,0.0,0.0,93,0.00,CLR,OVC,0.00,WeatherDisplay:10.37,2013-07-04 12:58:00,
2013-07-04 05:59:00,52.1,50.1,30.13,North,355,0.0,0.0,93,0.00,CLR,OVC,0.00,WeatherDisplay:10.37,2013-07-04 12:59:00,
2013-07-04 06:01:00,52.1,49.8,30.13,North,355,0.1,1.2,92,0.00,CLR,OVC,0.00,WeatherDisplay:10.37,2013-07-04 13:01:00,
2013-07-04 06:03:00,52.1,49.8,30.13,North,355,0.0,0.0,92,0.00,CLR,OVC,0.00,WeatherDisplay:10.37,2013-07-04 13:03:00,
2013-07-04 06:04:00,52.1,49.8,30.13,North,355,0.0,1.2,92,0.00,CLR,OVC,0.00,WeatherDisplay:10.37,2013-07-04 13:04:00,
2013-07-04 06:06:00,52.2,50.2,30.13,North,355,0.0,0.0,93,0.00,CLR,OVC,0.00,WeatherDisplay:10.37,2013-07-04 13:06:00,
2013-07-04 06:09:00,52.4,50.4,30.14,North,355,0.0,0.0,93,0.00,CLR,OVC,0.00,WeatherDisplay:10.37,2013-07-04 13:09:00,
2013-07-04 06:12:00,52.7,50.7,30.14,North,355,0.0,0.0,93,0.00,CLR,OVC,0.00,WeatherDisplay:10.37,2013-07-04 13:12:00,
2013-07-04 06:14:00,52.9,50.9,30.14,North,355,0.0,0.0,93,0.00,CLR,OVC,0.00,WeatherDisplay:10.37,2013-07-04 13:14:00,
2013-07-04 06:17:00,53.4,51.1,30.14,North,355,0.0,0.0,92,0.00,CLR,OVC,0.00,WeatherDisplay:10.37,2013-07-04 13:17:00,
2013-07-04 06:19:00,53.7,51.1,30.14,North,355,0.0,0.0,91,0.00,CLR,OVC,0.00,WeatherDisplay:10.37,2013-07-04 13:19:00,
2013-07-04 06:20:00,53.7,51.1,30.14,North,355,0.0,0.0,91,0.00,CLR,OVC,0.00,WeatherDisplay:10.37,2013-07-04 13:20:00,
2013-07-04 06:22:00,53.9,51.0,30.14,North,355,0.0,0.0,90,0.00,CLR,OVC,0.00,WeatherDisplay:10.37,2013-07-04 13:22:00,
2013-07-04 06:24:00,54.0,51.1,30.14,North,355,0.0,0.0,90,0.00,CLR,OVC,0.00,WeatherDisplay:10.37,2013-07-04 13:24:00,
2013-07-04 06:25:00,54.0,51.1,30.14,North,355,0.0,0.0,90,0.00,CLR,OVC,0.00,WeatherDisplay:10.37,2013-07-04 13:25:00,
2013-07-04 06:27:00,54.2,51.3,30.14,North,355,0.0,0.0,90,0.00,CLR,OVC,0.00,WeatherDisplay:10.37,2013-07-04 13:27:00,
2013-07-04 06:29:00,54.4,51.2,30.14,North,355,0.0,0.0,89,0.00,CLR,OVC,0.00,WeatherDisplay:10.37,2013-07-04 13:29:00,
2013-07-04 06:30:00,54.5,51.3,30.14,North,355,0.1,2.0,89,0.00,CLR,OVC,0.00,WeatherDisplay:10.37,2013-07-04 13:30:00,
2013-07-04 06:32:00,54.6,51.4,30.14,North,355,0.0,0.0,89,0.00,CLR,OVC,0.00,WeatherDisplay:10.37,2013-07-04 13:32:00,
2013-07-04 06:35:00,54.5,51.3,30.14,North,355,0.0,0.0,89,0.00,CLR,OVC,0.00,WeatherDisplay:10.37,2013-07-04 13:35:00,
2013-07-04 06:37:00,54.4,51.2,30.14,North,355,0.0,0.0,89,0.00,CLR,OVC,0.00,WeatherDisplay:10.37,2013-07-04 13:37:00,
2013-07-04 06:40:00,54.4,51.2,30.14,North,355,0.0,0.0,89,0.00,CLR,OVC,0.00,WeatherDisplay:10.37,2013-07-04 13:40:00,
2013-07-04 06:41:00,54.3,51.1,30.14,North,355,0.0,1.2,89,0.00,CLR,OVC,0.00,WeatherDisplay:10.37,2013-07-04 13:41:00,
2013-07-04 06:43:00,54.3,51.1,30.14,North,355,0.0,0.0,89,0.00,CLR,OVC,0.00,WeatherDisplay:10.37,2013-07-04 13:43:00,
2013-07-04 06:45:00,54.2,51.0,30.14,North,355,0.0,0.0,89,0.00,CLR,OVC,0.00,WeatherDisplay:10.37,2013-07-04 13:45:00,
2013-07-04 06:46:00,54.2,51.3,30.14,North,355,0.0,0.0,90,0.00,CLR,OVC,0.00,WeatherDisplay:10.37,2013-07-04 13:46:00,
2013-07-04 06:48:00,54.1,51.2,30.14,North,355,0.0,0.0,90,0.00,CLR,OVC,0.00,WeatherDisplay:10.37,2013-07-04 13:48:00,
2013-07-04 06:50:00,54.1,51.2,30.14,North,355,0.1,1.2,90,0.00,CLR,OVC,0.00,WeatherDisplay:10.37,2013-07-04 13:50:00,
2013-07-04 06:51:00,54.1,51.2,30.14,North,355,0.0,0.0,90,0.00,CLR,OVC,0.00,WeatherDisplay:10.37,2013-07-04 13:51:00,
2013-07-04 06:52:00,54.1,51.2,30.14,North,355,0.0,0.0,90,0.00,CLR,OVC,0.00,WeatherDisplay:10.37,2013-07-04 13:52:00,
2013-07-04 06:53:00,54.1,51.2,30.14,North,355,0.0,0.0,90,0.00,CLR,OVC,0.00,WeatherDisplay:10.37,2013-07-04 13:53:00,
2013-07-04 06:55:00,54.1,51.5,30.14,North,355,0.0,0.0,91,0.00,CLR,OVC,0.00,WeatherDisplay:10.37,2013-07-04 13:55:00,
2013-07-04 06:56:00,54.2,51.6,30.14,North,355,0.0,0.0,91,0.00,CLR,OVC,0.00,WeatherDisplay:10.37,2013-07-04 13:56:00,
2013-07-04 06:57:00,54.2,51.6,30.14,North,355,0.0,0.0,91,0.00,CLR,OVC,0.00,WeatherDisplay:10.37,2013-07-04 13:57:00,
2013-07-04 06:58:00,54.3,51.7,30.14,North,355,0.0,0.0,91,0.00,CLR,OVC,0.00,WeatherDisplay:10.37,2013-07-04 13:58:00,
2013-07-04 07:00:00,54.4,51.8,30.14,North,355,0.0,0.0,91,0.00,CLR,OVC,0.00,WeatherDisplay:10.37,2013-07-04 14:00:00,
2013-07-04 07:01:00,54.4,51.8,30.14,North,355,0.0,0.0,91,0.00,CLR,OVC,0.00,WeatherDisplay:10.37,2013-07-04 14:01:00,
2013-07-04 07:02:00,54.5,51.9,30.14,North,355,0.0,0.0,91,0.00,CLR,OVC,0.00,WeatherDisplay:10.37,2013-07-04 14:02:00,
2013-07-04 07:04:00,54.6,51.7,30.14,North,355,0.1,1.2,90,0.00,CLR,OVC,0.00,WeatherDisplay:10.37,2013-07-04 14:04:00,
2013-07-04 07:06:00,54.8,51.9,30.14,North,355,0.1,0.0,90,0.00,CLR,OVC,0.00,WeatherDisplay:10.37,2013-07-04 14:06:00,
2013-07-04 07:07:00,54.9,52.0,30.14,North,355,0.0,1.2,90,0.00,CLR,OVC,0.00,WeatherDisplay:10.37,2013-07-04 14:07:00,
2013-07-04 07:09:00,55.1,52.2,30.14,North,355,0.0,0.0,90,0.00,CLR,OVC,0.00,WeatherDisplay:10.37,2013-07-04 14:09:00,
2013-07-04 07:11:00,55.3,52.4,30.14,North,355,0.0,0.0,90,0.00,CLR,OVC,0.00,WeatherDisplay:10.37,2013-07-04 14:11:00,
2013-07-04 07:12:00,55.4,52.5,30.14,North,355,0.0,1.2,90,0.00,CLR,OVC,0.00,WeatherDisplay:10.37,2013-07-04 14:12:00,
2013-07-04 07:14:00,55.6,52.1,30.14,North,355,0.0,0.0,88,0.00,CLR,OVC,0.00,WeatherDisplay:10.37,2013-07-04 14:14:00,
2013-07-04 07:16:00,55.6,52.1,30.14,North,355,0.3,1.2,88,0.00,CLR,OVC,0.00,WeatherDisplay:10.37,2013-07-04 14:16:00,
2013-07-04 07:17:00,55.6,52.1,30.14,North,355,0.8,1.2,88,0.00,CLR,OVC,0.00,WeatherDisplay:10.37,2013-07-04 14:17:00,
2013-07-04 07:19:00,55.5,52.0,30.14,NNW,342,0.5,0.0,88,0.00,CLR,OVC,0.00,WeatherDisplay:10.37,2013-07-04 14:19:00,
2013-07-04 07:21:00,55.5,52.3,30.14,NNW,342,0.4,2.3,89,0.00,CLR,OVC,0.00,WeatherDisplay:10.37,2013-07-04 14:21:00,
2013-07-04 07:22:00,55.5,52.3,30.14,NNW,342,0.0,2.3,89,0.00,CLR,OVC,0.00,WeatherDisplay:10.37,2013-07-04 14:22:00,
2013-07-04 07:23:00,55.5,52.3,30.14,NNW,342,0.0,0.0,89,0.00,CLR,OVC,0.00,WeatherDisplay:10.37,2013-07-04 14:23:00,
2013-07-04 07:24:00,55.6,52.7,30.14,NNW,342,0.0,0.0,90,0.00,CLR,OVC,0.00,WeatherDisplay:10.37,2013-07-04 14:24:00,
2013-07-04 07:26:00,55.7,52.2,30.14,NNW,342,0.0,0.0,88,0.00,CLR,OVC,0.00,WeatherDisplay:10.37,2013-07-04 14:26:00,
2013-07-04 07:27:00,55.8,52.3,30.14,NNW,342,0.2,1.0,88,0.00,CLR,OVC,0.00,WeatherDisplay:10.37,2013-07-04 14:27:00,
2013-07-04 07:28:00,55.8,52.3,30.14,NNW,342,0.4,2.3,88,0.00,CLR,OVC,0.00,WeatherDisplay:10.37,2013-07-04 14:28:00,
2013-07-04 07:29:00,55.8,52.3,30.14,NNW,342,0.0,0.0,88,0.00,CLR,OVC,0.00,WeatherDisplay:10.37,2013-07-04 14:29:00,
2013-07-04 07:32:00,55.9,52.4,30.14,WNW,292,0.8,3.5,88,0.00,CLR,OVC,0.00,WeatherDisplay:10.37,2013-07-04 14:32:00,
2013-07-04 07:33:00,55.9,52.4,30.14,WNW,292,0.0,0.0,88,0.00,CLR,OVC,0.00,WeatherDisplay:10.37,2013-07-04 14:33:00,
2013-07-04 07:35:00,55.8,52.0,30.14,West,278,1.8,3.5,87,0.00,CLR,OVC,0.00,WeatherDisplay:10.37,2013-07-04 14:35:00,
2013-07-04 07:37:00,55.7,52.2,30.15,West,278,0.0,1.2,88,0.00,CLR,OVC,0.00,WeatherDisplay:10.37,2013-07-04 14:37:00,
2013-07-04 07:38:00,55.7,52.2,30.15,West,278,0.0,0.0,88,0.00,CLR,OVC,0.00,WeatherDisplay:10.37,2013-07-04 14:38:00,
2013-07-04 07:39:00,55.7,52.2,30.14,West,278,0.0,0.0,88,0.00,CLR,OVC,0.00,WeatherDisplay:10.37,2013-07-04 14:39:00,
2013-07-04 07:40:00,55.7,52.2,30.14,West,278,0.0,0.0,88,0.00,CLR,OVC,0.00,WeatherDisplay:10.37,2013-07-04 14:40:00,
2013-07-04 07:43:00,55.7,52.5,30.14,West,278,0.0,0.0,89,0.00,CLR,OVC,0.00,WeatherDisplay:10.37,2013-07-04 14:43:00,
2013-07-04 07:44:00,55.6,52.4,30.14,West,278,0.0,0.0,89,0.00,CLR,OVC,0.00,WeatherDisplay:10.37,2013-07-04 14:44:00,
2013-07-04 07:45:00,55.6,52.4,30.14,West,278,0.1,1.2,89,0.00,CLR,OVC,0.00,WeatherDisplay:10.37,2013-07-04 14:45:00,
2013-07-04 07:48:00,55.8,52.3,30.14,West,279,0.0,0.0,88,0.00,CLR,OVC,0.00,WeatherDisplay:10.37,2013-07-04 14:48:00,
2013-07-04 07:49:00,55.9,52.7,30.14,West,278,0.0,0.0,89,0.00,CLR,OVC,0.00,WeatherDisplay:10.37,2013-07-04 14:49:00,
2013-07-04 07:50:00,56.0,53.1,30.14,West,279,0.0,0.0,90,0.00,CLR,OVC,0.00,WeatherDisplay:10.37,2013-07-04 14:50:00,
2013-07-04 07:53:00,56.5,53.3,30.14,West,279,0.0,1.2,89,0.00,CLR,OVC,0.00,WeatherDisplay:10.37,2013-07-04 14:53:00,
2013-07-04 07:54:00,56.6,53.1,30.14,West,279,0.0,0.0,88,0.00,CLR,OVC,0.00,WeatherDisplay:10.37,2013-07-04 14:54:00,
2013-07-04 07:55:00,56.7,53.5,30.14,West,278,0.0,1.0,89,0.00,CLR,OVC,0.00,WeatherDisplay:10.37,2013-07-04 14:55:00,
2013-07-04 07:58:00,56.9,53.4,30.14,West,279,0.0,1.2,88,0.00,CLR,OVC,0.00,WeatherDisplay:10.37,2013-07-04 14:58:00,
2013-07-04 07:59:00,56.9,53.1,30.14,West,278,0.0,0.0,87,0.00,CLR,OVC,0.00,WeatherDisplay:10.37,2013-07-04 14:59:00,
2013-07-04 08:00:00,56.9,53.1,30.14,West,279,0.0,0.0,87,0.00,CLR,OVC,0.00,WeatherDisplay:10.37,2013-07-04 15:00:00,
2013-07-04 08:01:00,57.0,53.5,30.14,West,278,0.0,0.0,88,0.00,CLR,OVC,0.00,WeatherDisplay:10.37,2013-07-04 15:01:00,
2013-07-04 08:04:00,57.0,53.5,30.14,West,279,1.2,2.0,88,0.00,CLR,OVC,0.00,WeatherDisplay:10.37,2013-07-04 15:04:00,
2013-07-04 08:05:00,56.9,53.1,30.14,West,279,1.6,3.5,87,0.00,CLR,OVC,0.00,WeatherDisplay:10.37,2013-07-04 15:05:00,
2013-07-04 08:06:00,56.9,53.1,30.14,West,278,0.0,1.2,87,0.00,CLR,OVC,0.00,WeatherDisplay:10.37,2013-07-04 15:06:00,
2013-07-04 08:09:00,56.8,53.0,30.15,West,278,0.1,1.2,87,0.00,CLR,OVC,0.00,WeatherDisplay:10.37,2013-07-04 15:09:00,
2013-07-04 08:10:00,56.7,52.9,30.15,West,278,0.2,1.2,87,0.00,CLR,OVC,0.00,WeatherDisplay:10.37,2013-07-04 15:10:00,
2013-07-04 08:12:00,56.8,53.0,30.14,West,278,0.0,0.0,87,0.00,CLR,OVC,0.00,WeatherDisplay:10.37,2013-07-04 15:12:00,
2013-07-04 08:15:00,56.7,52.6,30.15,West,278,0.5,3.0,86,0.00,CLR,OVC,0.00,WeatherDisplay:10.37,2013-07-04 15:15:00,
2013-07-04 08:16:00,56.7,52.9,30.15,NNE,25,1.2,3.5,87,0.00,CLR,OVC,0.00,WeatherDisplay:10.37,2013-07-04 15:16:00,
2013-07-04 08:17:00,56.7,52.6,30.15,NNE,24,1.3,3.5,86,0.00,CLR,OVC,0.00,WeatherDisplay:10.37,2013-07-04 15:17:00,
2013-07-04 08:20:00,56.9,53.1,30.15,NNE,12,0.0,4.0,87,0.00,CLR,OVC,0.00,WeatherDisplay:10.37,2013-07-04 15:20:00,
2013-07-04 08:21:00,56.9,52.8,30.15,NNE,29,0.6,3.5,86,0.00,CLR,OVC,0.00,WeatherDisplay:10.37,2013-07-04 15:21:00,
2013-07-04 08:22:00,57.0,52.9,30.15,NNE,21,0.4,4.0,86,0.00,CLR,OVC,0.00,WeatherDisplay:10.37,2013-07-04 15:22:00,
2013-07-04 08:25:00,57.2,53.0,30.15,WSW,247,2.6,3.5,86,0.00,CLR,OVC,0.00,WeatherDisplay:10.37,2013-07-04 15:25:00,
2013-07-04 08:26:00,57.2,53.0,30.15,WSW,247,2.3,3.5,86,0.00,CLR,OVC,0.00,WeatherDisplay:10.37,2013-07-04 15:26:00,
2013-07-04 08:27:00,57.2,52.4,30.15,WSW,247,0.0,2.3,84,0.00,CLR,OVC,0.00,WeatherDisplay:10.37,2013-07-04 15:27:00,
2013-07-04 08:31:00,57.1,53.0,30.15,WSW,247,0.0,0.0,86,0.00,CLR,OVC,0.00,WeatherDisplay:10.37,2013-07-04 15:31:00,
2013-07-04 08:32:00,57.2,52.7,30.15,WSW,247,0.4,2.3,85,0.00,CLR,OVC,0.00,WeatherDisplay:10.37,2013-07-04 15:32:00,
2013-07-04 08:36:00,57.2,53.0,30.15,WSW,257,0.5,2.3,86,0.00,CLR,OVC,0.00,WeatherDisplay:10.37,2013-07-04 15:36:00,
2013-07-04 08:37:00,57.3,52.8,30.15,North,355,0.9,3.5,85,0.00,CLR,OVC,0.00,WeatherDisplay:10.37,2013-07-04 15:37:00,
2013-07-04 08:41:00,57.5,52.7,30.15,North,351,0.0,0.0,84,0.00,CLR,OVC,0.00,WeatherDisplay:10.37,2013-07-04 15:41:00,
2013-07-04 08:42:00,57.5,53.0,30.15,North,351,0.0,0.0,85,0.00,CLR,OVC,0.00,WeatherDisplay:10.37,2013-07-04 15:42:00,
2013-07-04 08:43:00,57.6,52.8,30.15,North,351,0.0,1.2,84,0.00,CLR,OVC,0.00,WeatherDisplay:10.37,2013-07-04 15:43:00,
2013-07-04 08:46:00,57.8,53.0,30.15,ESE,112,0.1,2.3,84,0.00,CLR,OVC,0.00,WeatherDisplay:10.37,2013-07-04 15:46:00,
2013-07-04 08:47:00,57.8,52.7,30.15,ESE,112,0.0,1.2,83,0.00,CLR,OVC,0.00,WeatherDisplay:10.37,2013-07-04 15:47:00,
2013-07-04 08:48:00,57.8,53.0,30.15,ESE,112,0.0,0.0,84,0.00,CLR,OVC,0.00,WeatherDisplay:10.37,2013-07-04 15:48:00,
2013-07-04 08:51:00,58.0,53.5,30.15,ESE,115,0.0,0.0,85,0.00,CLR,OVC,0.00,WeatherDisplay:10.37,2013-07-04 15:51:00,
2013-07-04 08:52:00,58.0,53.5,30.15,ESE,115,0.0,1.2,85,0.00,CLR,OVC,0.00,WeatherDisplay:10.37,2013-07-04 15:52:00,
2013-07-04 08:53:00,58.1,53.3,30.15,SSE,159,0.3,1.2,84,0.00,CLR,OVC,0.00,WeatherDisplay:10.37,2013-07-04 15:53:00,
2013-07-04 08:54:00,58.1,53.0,30.15,SSE,159,0.6,4.0,83,0.00,CLR,OVC,0.00,WeatherDisplay:10.37,2013-07-04 15:54:00,
2013-07-04 08:56:00,58.0,52.9,30.15,SSE,161,0.4,2.3,83,0.00,CLR,OVC,0.00,WeatherDisplay:10.37,2013-07-04 15:56:00,
2013-07-04 08:57:00,58.0,53.2,30.15,South,171,1.0,2.3,84,0.00,CLR,OVC,0.00,WeatherDisplay:10.37,2013-07-04 15:57:00,
2013-07-04 08:58:00,58.0,52.9,30.15,South,171,0.4,3.5,83,0.00,CLR,OVC,0.00,WeatherDisplay:10.37,2013-07-04 15:58:00,
2013-07-04 08:59:00,58.0,53.5,30.15,SSW,209,1.9,3.0,85,0.00,CLR,OVC,0.00,WeatherDisplay:10.37,2013-07-04 15:59:00,
2013-07-04 09:02:00,58.1,53.3,30.15,South,187,0.0,0.0,84,0.00,CLR,OVC,0.00,WeatherDisplay:10.37,2013-07-04 16:02:00,
2013-07-04 09:03:00,58.1,53.6,30.15,South,187,0.0,0.0,85,0.00,CLR,OVC,0.00,WeatherDisplay:10.37,2013-07-04 16:03:00,
2013-07-04 09:04:00,58.1,53.6,30.15,South,188,0.0,1.2,85,0.00,CLR,OVC,0.00,WeatherDisplay:10.37,2013-07-04 16:04:00,
2013-07-04 09:07:00,58.4,53.9,30.15,South,187,0.1,1.0,85,0.00,CLR,OVC,0.00,WeatherDisplay:10.37,2013-07-04 16:07:00,
2013-07-04 09:08:00,58.4,52.9,30.15,South,188,0.2,2.3,82,0.00,CLR,OVC,0.00,WeatherDisplay:10.37,2013-07-04 16:08:00,
2013-07-04 09:09:00,58.4,52.9,30.15,South,188,0.5,2.3,82,0.00,CLR,OVC,0.00,WeatherDisplay:10.37,2013-07-04 16:09:00,
2013-07-04 09:12:00,58.2,53.1,30.15,South,188,1.2,3.5,83,0.00,CLR,OVC,0.00,WeatherDisplay:10.37,2013-07-04 16:12:00,
2013-07-04 09:13:00,58.2,53.1,30.15,South,188,0.0,0.0,83,0.00,CLR,OVC,0.00,WeatherDisplay:10.37,2013-07-04 16:13:00,
2013-07-04 09:14:00,58.2,53.1,30.15,South,188,0.0,0.0,83,0.00,CLR,OVC,0.00,WeatherDisplay:10.37,2013-07-04 16:14:00,
2013-07-04 09:15:00,58.2,53.4,30.15,South,188,0.0,0.0,84,0.00,CLR,OVC,0.00,WeatherDisplay:10.37,2013-07-04 16:15:00,
2013-07-04 09:17:00,58.3,53.8,30.15,South,186,1.4,3.5,85,0.00,CLR,OVC,0.00,WeatherDisplay:10.37,2013-07-04 16:17:00,
2013-07-04 09:18:00,58.3,53.8,30.15,South,186,1.0,3.5,85,0.00,CLR,OVC,0.00,WeatherDisplay:10.37,2013-07-04 16:18:00,
2013-07-04 09:19:00,58.4,53.3,30.15,South,186,0.0,1.2,83,0.00,CLR,OVC,0.00,WeatherDisplay:10.37,2013-07-04 16:19:00,
2013-07-04 09:20:00,58.4,53.6,30.15,South,189,0.4,0.0,84,0.00,CLR,OVC,0.00,WeatherDisplay:10.37,2013-07-04 16:20:00,
2013-07-04 09:22:00,58.6,53.1,30.15,South,188,1.4,2.3,82,0.00,CLR,OVC,0.00,WeatherDisplay:10.37,2013-07-04 16:22:00,
2013-07-04 09:23:00,58.6,53.1,30.15,South,188,0.9,2.3,82,0.00,CLR,OVC,0.00,WeatherDisplay:10.37,2013-07-04 16:23:00,
2013-07-04 09:24:00,58.6,53.5,30.15,South,188,0.4,1.2,83,0.00,CLR,OVC,0.00,WeatherDisplay:10.37,2013-07-04 16:24:00,
2013-07-04 09:25:00,58.7,53.2,30.15,South,189,0.9,3.0,82,0.00,CLR,OVC,0.00,WeatherDisplay:10.37,2013-07-04 16:25:00,
2013-07-04 09:27:00,58.6,53.5,30.15,WSW,242,1.2,4.6,83,0.00,CLR,OVC,0.00,WeatherDisplay:10.37,2013-07-04 16:27:00,
2013-07-04 09:28:00,58.7,53.5,30.15,WSW,242,1.9,4.6,83,0.00,CLR,OVC,0.00,WeatherDisplay:10.37,2013-07-04 16:28:00,
2013-07-04 09:29:00,58.7,53.5,30.15,WSW,242,1.1,4.6,83,0.00,CLR,OVC,0.00,WeatherDisplay:10.37,2013-07-04 16:29:00,
2013-07-04 09:30:00,58.8,53.0,30.15,WSW,242,0.4,3.5,81,0.00,CLR,OVC,0.00,WeatherDisplay:10.37,2013-07-04 16:30:00,
2013-07-04 09:33:00,58.9,53.7,30.15,WSW,242,0.0,0.0,83,0.00,CLR,OVC,0.00,WeatherDisplay:10.37,2013-07-04 16:33:00,
2013-07-04 09:34:00,58.9,53.4,30.15,SW,234,0.7,3.0,82,0.00,CLR,OVC,0.00,WeatherDisplay:10.37,2013-07-04 16:34:00,
2013-07-04 09:35:00,58.9,52.7,30.15,SW,226,1.7,3.5,80,0.00,CLR,OVC,0.00,WeatherDisplay:10.37,2013-07-04 16:35:00,
2013-07-04 09:38:00,58.7,52.5,30.15,WSW,242,0.7,4.6,80,0.00,CLR,OVC,0.00,WeatherDisplay:10.37,2013-07-04 16:38:00,
2013-07-04 09:39:00,58.6,52.8,30.15,WSW,242,0.1,2.3,81,0.00,CLR,OVC,0.00,WeatherDisplay:10.37,2013-07-04 16:39:00,
2013-07-04 09:40:00,58.6,53.1,30.15,WSW,242,0.0,0.0,82,0.00,CLR,OVC,0.00,WeatherDisplay:10.37,2013-07-04 16:40:00,
2013-07-04 09:44:00,58.7,52.9,30.15,WSW,242,0.2,2.3,81,0.00,CLR,OVC,0.00,WeatherDisplay:10.37,2013-07-04 16:44:00,
2013-07-04 09:45:00,58.7,52.9,30.15,WSW,242,0.1,1.2,81,0.00,CLR,OVC,0.00,WeatherDisplay:10.37,2013-07-04 16:45:00,
2013-07-04 09:46:00,58.8,53.3,30.15,WSW,242,0.0,0.0,82,0.00,CLR,OVC,0.00,WeatherDisplay:10.37,2013-07-04 16:46:00,
2013-07-04 09:49:00,58.9,53.1,30.15,WSW,242,0.1,0.0,81,0.00,CLR,OVC,0.00,WeatherDisplay:10.37,2013-07-04 16:49:00,
2013-07-04 09:50:00,59.0,52.8,30.15,WSW,242,0.1,1.2,80,0.00,CLR,OVC,0.00,WeatherDisplay:10.37,2013-07-04 16:50:00,
2013-07-04 09:51:00,59.0,52.8,30.15,WSW,242,0.0,0.0,80,0.00,CLR,OVC,0.00,WeatherDisplay:10.37,2013-07-04 16:51:00,
2013-07-04 09:54:00,59.4,53.2,30.15,WSW,242,0.0,1.0,80,0.00,CLR,OVC,0.00,WeatherDisplay:10.37,2013-07-04 16:54:00,
2013-07-04 09:55:00,59.4,52.9,30.15,WSW,242,0.0,1.2,79,0.00,CLR,OVC,0.00,WeatherDisplay:10.37,2013-07-04 16:55:00,
2013-07-04 09:56:00,59.5,53.3,30.15,WSW,242,0.5,2.0,80,0.00,CLR,OVC,0.00,WeatherDisplay:10.37,2013-07-04 16:56:00,
2013-07-04 09:59:00,59.6,53.1,30.15,WSW,242,0.0,1.2,79,0.00,CLR,OVC,0.00,WeatherDisplay:10.37,2013-07-04 16:59:00,
2013-07-04 10:00:00,59.6,53.1,30.15,WSW,242,0.0,1.2,79,0.00,CLR,OVC,0.00,WeatherDisplay:10.37,2013-07-04 17:00:00,
2013-07-04 10:01:00,59.7,53.2,30.15,WSW,242,0.4,1.2,79,0.00,CLR,OVC,0.00,WeatherDisplay:10.37,2013-07-04 17:01:00,
2013-07-04 10:04:00,59.6,53.4,30.15,WSW,242,0.8,1.2,80,0.00,CLR,OVC,0.00,WeatherDisplay:10.37,2013-07-04 17:04:00,
2013-07-04 10:05:00,59.7,53.9,30.15,WSW,242,0.0,2.3,81,0.00,CLR,OVC,0.00,WeatherDisplay:10.37,2013-07-04 17:05:00,
2013-07-04 10:07:00,59.7,53.5,30.15,WSW,242,0.0,1.2,80,0.00,CLR,OVC,0.00,WeatherDisplay:10.37,2013-07-04 17:07:00,
2013-07-04 10:09:00,59.9,53.4,30.15,WSW,242,0.0,2.3,79,0.00,CLR,OVC,0.00,WeatherDisplay:10.37,2013-07-04 17:09:00,
2013-07-04 10:10:00,59.9,53.7,30.15,WSW,242,0.0,0.0,80,0.00,CLR,OVC,0.00,WeatherDisplay:10.37,2013-07-04 17:10:00,
2013-07-04 10:12:00,60.0,53.8,30.15,WSW,242,0.2,1.2,80,0.00,CLR,OVC,0.00,WeatherDisplay:10.37,2013-07-04 17:12:00,
2013-07-04 10:13:00,60.1,53.2,30.15,WSW,242,0.0,0.0,78,0.00,CLR,OVC,0.00,WeatherDisplay:10.37,2013-07-04 17:13:00,
2013-07-04 10:15:00,60.3,53.8,30.15,WSW,242,0.1,1.2,79,0.00,CLR,OVC,0.00,WeatherDisplay:10.37,2013-07-04 17:15:00,
2013-07-04 10:16:00,60.3,52.7,30.15,WSW,240,0.8,3.5,76,0.00,CLR,OVC,0.00,WeatherDisplay:10.37,2013-07-04 17:16:00,
2013-07-04 10:17:00,60.3,52.7,30.15,WSW,240,0.1,2.3,76,0.00,CLR,OVC,0.00,WeatherDisplay:10.37,2013-07-04 17:17:00,
2013-07-04 10:18:00,60.3,53.4,30.15,WSW,240,0.6,2.0,78,0.00,CLR,OVC,0.00,WeatherDisplay:10.37,2013-07-04 17:18:00,
2013-07-04 10:20:00,60.3,52.7,30.15,WSW,240,0.0,0.0,76,0.00,CLR,OVC,0.00,WeatherDisplay:10.37,2013-07-04 17:20:00,
2013-07-04 10:21:00,60.3,53.4,30.15,WSW,240,0.0,0.0,78,0.00,CLR,OVC,0.00,WeatherDisplay:10.37,2013-07-04 17:21:00,
2013-07-04 10:22:00,60.3,53.4,30.15,WSW,240,0.0,1.2,78,0.00,CLR,OVC,0.00,WeatherDisplay:10.37,2013-07-04 17:22:00,
2013-07-04 10:24:00,60.4,54.2,30.15,WSW,240,0.0,0.0,80,0.00,CLR,OVC,0.00,WeatherDisplay:10.37,2013-07-04 17:24:00,
2013-07-04 10:25:00,60.4,53.9,30.15,WSW,240,0.0,0.0,79,0.00,CLR,OVC,0.00,WeatherDisplay:10.37,2013-07-04 17:25:00,
2013-07-04 10:26:00,60.5,53.6,30.15,WSW,240,0.0,0.0,78,0.00,CLR,OVC,0.00,WeatherDisplay:10.37,2013-07-04 17:26:00,
2013-07-04 10:27:00,60.5,53.6,30.15,WSW,240,0.0,0.0,78,0.00,CLR,OVC,0.00,WeatherDisplay:10.37,2013-07-04 17:27:00,
2013-07-04 10:29:00,60.6,54.0,30.15,WSW,240,1.0,2.3,79,0.00,CLR,OVC,0.00,WeatherDisplay:10.37,2013-07-04 17:29:00,
2013-07-04 10:30:00,60.6,53.3,30.15,WSW,240,0.0,2.0,77,0.00,CLR,OVC,0.00,WeatherDisplay:10.37,2013-07-04 17:30:00,
2013-07-04 10:31:00,60.5,53.3,30.15,SW,234,3.0,4.6,77,0.00,CLR,OVC,0.00,WeatherDisplay:10.37,2013-07-04 17:31:00,
2013-07-04 10:32:00,60.4,53.2,30.15,SW,234,1.5,4.6,77,0.00,CLR,OVC,0.00,WeatherDisplay:10.37,2013-07-04 17:32:00,
2013-07-04 10:34:00,60.3,53.1,30.15,SW,234,2.0,3.5,77,0.00,CLR,OVC,0.00,WeatherDisplay:10.37,2013-07-04 17:34:00,
2013-07-04 10:36:00,60.2,53.3,30.15,SW,234,0.0,0.0,78,0.00,CLR,OVC,0.00,WeatherDisplay:10.37,2013-07-04 17:36:00,
2013-07-04 10:37:00,60.3,53.8,30.14,SW,234,0.0,1.2,79,0.00,CLR,OVC,0.00,WeatherDisplay:10.37,2013-07-04 17:37:00,
2013-07-04 10:39:00,60.4,54.2,30.14,SW,234,0.0,0.0,80,0.00,CLR,OVC,0.00,WeatherDisplay:10.37,2013-07-04 17:39:00,
2013-07-04 10:41:00,60.6,53.7,30.14,SW,234,0.2,1.2,78,0.00,CLR,OVC,0.00,WeatherDisplay:10.37,2013-07-04 17:41:00,
2013-07-04 10:42:00,60.7,54.5,30.14,SW,234,0.0,1.2,80,0.00,CLR,OVC,0.00,WeatherDisplay:10.37,2013-07-04 17:42:00,
2013-07-04 10:43:00,60.8,54.2,30.14,SW,234,0.0,1.2,79,0.00,CLR,OVC,0.00,WeatherDisplay:10.37,2013-07-04 17:43:00,
2013-07-04 10:44:00,60.9,54.3,30.14,SW,235,1.4,3.5,79,0.00,CLR,OVC,0.00,WeatherDisplay:10.37,2013-07-04 17:44:00,
2013-07-04 10:46:00,61.1,53.5,30.14,WSW,243,3.3,4.6,76,0.00,CLR,OVC,0.00,WeatherDisplay:10.37,2013-07-04 17:46:00,
2013-07-04 10:47:00,61.1,53.5,30.14,WSW,244,2.4,5.8,76,0.00,CLR,OVC,0.00,WeatherDisplay:10.37,2013-07-04 17:47:00,
2013-07-04 10:48:00,61.2,54.3,30.14,WSW,244,1.8,4.6,78,0.00,CLR,OVC,0.00,WeatherDisplay:10.37,2013-07-04 17:48:00,
2013-07-04 10:49:00,61.3,54.4,30.14,WSW,244,0.3,4.6,78,0.00,CLR,OVC,0.00,WeatherDisplay:10.37,2013-07-04 17:49:00,
2013-07-04 10:52:00,61.5,53.9,30.14,WSW,244,0.0,0.0,76,0.00,CLR,OVC,0.00,WeatherDisplay:10.37,2013-07-04 17:52:00,
2013-07-04 10:53:00,61.6,54.0,30.14,WSW,244,1.2,3.5,76,0.00,CLR,OVC,0.00,WeatherDisplay:10.37,2013-07-04 17:53:00,
2013-07-04 10:54:00,61.6,54.0,30.14,WSW,244,0.7,1.2,76,0.00,CLR,OVC,0.00,WeatherDisplay:10.37,2013-07-04 17:54:00,
2013-07-04 10:57:00,61.8,53.8,30.14,WSW,244,1.2,1.2,75,0.00,CLR,OVC,0.00,WeatherDisplay:10.37,2013-07-04 17:57:00,
2013-07-04 10:58:00,61.9,53.9,30.14,WSW,244,1.3,4.0,75,0.00,CLR,OVC,0.00,WeatherDisplay:10.37,2013-07-04 17:58:00,
2013-07-04 10:59:00,62.0,54.0,30.14,WSW,246,1.2,4.6,75,0.00,CLR,OVC,0.00,WeatherDisplay:10.37,2013-07-04 17:59:00,
2013-07-04 11:02:00,62.1,54.8,30.14,WSW,246,1.0,3.5,77,0.00,CLR,OVC,0.00,WeatherDisplay:10.37,2013-07-04 18:02:00,
2013-07-04 11:03:00,62.2,54.5,30.14,WSW,246,0.8,3.5,76,0.00,CLR,OVC,0.00,WeatherDisplay:10.37,2013-07-04 18:03:00,
2013-07-04 11:04:00,62.2,54.2,30.14,WSW,246,1.3,3.5,75,0.00,CLR,OVC,0.00,WeatherDisplay:10.37,2013-07-04 18:04:00,
2013-07-04 11:05:00,62.3,54.3,30.14,WSW,246,1.8,3.5,75,0.00,CLR,OVC,0.00,WeatherDisplay:10.37,2013-07-04 18:05:00,
2013-07-04 11:07:00,62.6,54.6,30.14,WSW,238,2.5,4.6,75,0.00,CLR,OVC,0.00,WeatherDisplay:10.37,2013-07-04 18:07:00,
2013-07-04 11:08:00,62.6,54.6,30.14,WSW,238,1.2,4.6,75,0.00,CLR,OVC,0.00,WeatherDisplay:10.37,2013-07-04 18:08:00,
2013-07-04 11:09:00,62.7,54.7,30.14,WSW,238,1.3,3.5,75,0.00,CLR,OVC,0.00,WeatherDisplay:10.37,2013-07-04 18:09:00,
2013-07-04 11:10:00,62.7,54.3,30.14,WSW,238,0.5,3.5,74,0.00,CLR,OVC,0.00,WeatherDisplay:10.37,2013-07-04 18:10:00,
2013-07-04 11:13:00,63.0,54.2,30.14,WSW,238,0.3,1.2,73,0.00,CLR,OVC,0.00,WeatherDisplay:10.37,2013-07-04 18:13:00,
2013-07-04 11:14:00,63.0,54.2,30.14,WSW,240,2.4,4.6,73,0.00,CLR,OVC,0.00,WeatherDisplay:10.37,2013-07-04 18:14:00,
2013-07-04 11:16:00,63.0,54.2,30.14,WSW,241,1.0,3.5,73,0.00,CLR,OVC,0.00,WeatherDisplay:10.37,2013-07-04 18:16:00,
2013-07-04 11:18:00,62.9,53.7,30.14,WSW,241,2.0,3.5,72,0.00,CLR,OVC,0.00,WeatherDisplay:10.37,2013-07-04 18:18:00,
2013-07-04 11:19:00,62.9,54.1,30.14,WSW,241,0.5,4.6,73,0.00,CLR,OVC,0.00,WeatherDisplay:10.37,2013-07-04 18:19:00,
2013-07-04 11:21:00,62.9,54.5,30.14,WSW,242,0.2,1.2,74,0.00,CLR,OVC,0.00,WeatherDisplay:10.37,2013-07-04 18:21:00,
2013-07-04 11:23:00,63.0,55.3,30.14,WSW,242,0.0,1.2,76,0.00,CLR,OVC,0.00,WeatherDisplay:10.37,2013-07-04 18:23:00,
2013-07-04 11:24:00,63.0,54.9,30.14,WSW,242,1.0,2.0,75,0.00,CLR,OVC,0.00,WeatherDisplay:10.37,2013-07-04 18:24:00,
2013-07-04 11:25:00,63.0,54.6,30.14,WSW,242,1.2,3.5,74,0.00,CLR,OVC,0.00,WeatherDisplay:10.37,2013-07-04 18:25:00,
2013-07-04 11:26:00,63.0,54.6,30.14,WSW,242,0.2,3.5,74,0.00,CLR,OVC,0.00,WeatherDisplay:10.37,2013-07-04 18:26:00,
2013-07-04 11:28:00,63.0,54.9,30.14,WSW,242,0.2,1.2,75,0.00,CLR,OVC,0.00,WeatherDisplay:10.37,2013-07-04 18:28:00,
2013-07-04 11:30:00,63.0,54.9,30.14,WSW,242,0.0,0.0,75,0.00,CLR,OVC,0.00,WeatherDisplay:10.37,2013-07-04 18:30:00,
2013-07-04 11:31:00,63.0,55.3,30.14,WSW,242,0.0,1.2,76,0.00,CLR,OVC,0.00,WeatherDisplay:10.37,2013-07-04 18:31:00,
2013-07-04 11:33:00,63.1,54.7,30.14,WSW,242,0.0,0.0,74,0.00,CLR,OVC,0.00,WeatherDisplay:10.37,2013-07-04 18:33:00,
2013-07-04 11:35:00,63.2,55.5,30.14,WSW,242,0.0,1.2,76,0.00,CLR,OVC,0.00,WeatherDisplay:10.37,2013-07-04 18:35:00,
2013-07-04 11:36:00,63.3,54.9,30.14,WSW,242,1.4,1.4,74,0.00,CLR,OVC,0.00,WeatherDisplay:10.37,2013-07-04 18:36:00,
2013-07-04 11:39:00,63.5,55.1,30.14,WSW,242,2.0,4.6,74,0.00,CLR,OVC,0.00,WeatherDisplay:10.37,2013-07-04 18:39:00,
2013-07-04 11:40:00,63.5,55.1,30.14,WSW,242,0.5,3.5,74,0.00,CLR,OVC,0.00,WeatherDisplay:10.37,2013-07-04 18:40:00,
2013-07-04 11:41:00,63.4,55.3,30.13,WSW,239,0.7,3.5,75,0.00,CLR,OVC,0.00,WeatherDisplay:10.37,2013-07-04 18:41:00,
2013-07-04 11:42:00,63.4,55.3,30.14,WSW,239,1.6,3.5,75,0.00,CLR,OVC,0.00,WeatherDisplay:10.37,2013-07-04 18:42:00,
2013-07-04 11:45:00,63.5,55.4,30.13,WSW,240,2.1,5.8,75,0.00,CLR,OVC,0.00,WeatherDisplay:10.37,2013-07-04 18:45:00,
2013-07-04 11:46:00,63.6,55.9,30.13,WSW,240,1.2,3.5,76,0.00,CLR,OVC,0.00,WeatherDisplay:10.37,2013-07-04 18:46:00,
2013-07-04 11:47:00,63.5,55.4,30.13,WSW,240,2.2,4.0,75,0.00,CLR,OVC,0.00,WeatherDisplay:10.37,2013-07-04 18:47:00,
2013-07-04 11:50:00,63.2,54.8,30.13,WSW,240,0.2,2.3,74,0.00,CLR,OVC,0.00,WeatherDisplay:10.37,2013-07-04 18:50:00,
2013-07-04 11:51:00,63.2,55.1,30.13,WSW,240,0.0,1.2,75,0.00,CLR,OVC,0.00,WeatherDisplay:10.37,2013-07-04 18:51:00,
2013-07-04 11:53:00,63.1,55.4,30.13,WSW,240,1.1,2.3,76,0.00,CLR,OVC,0.00,WeatherDisplay:10.37,2013-07-04 18:53:00,
2013-07-04 11:55:00,62.9,54.5,30.13,WSW,240,0.7,2.0,74,0.00,CLR,OVC,0.00,WeatherDisplay:10.37,2013-07-04 18:55:00,
2013-07-04 11:56:00,62.9,54.9,30.13,WSW,240,1.2,2.3,75,0.00,CLR,OVC,0.00,WeatherDisplay:10.37,2013-07-04 18:56:00,
2013-07-04 11:58:00,62.8,54.4,30.13,WSW,240,0.0,1.2,74,0.00,CLR,OVC,0.00,WeatherDisplay:10.37,2013-07-04 18:58:00,
2013-07-04 12:00:00,62.8,55.1,30.14,WSW,240,0.8,2.0,76,0.00,CLR,OVC,0.00,WeatherDisplay:10.37,2013-07-04 19:00:00,
2013-07-04 12:01:00,62.8,54.8,30.14,WSW,240,3.2,5.0,75,0.00,CLR,OVC,0.00,WeatherDisplay:10.37,2013-07-04 19:01:00,
2013-07-04 12:03:00,62.7,54.7,30.14,WSW,240,2.4,4.6,75,0.00,CLR,OVC,0.00,WeatherDisplay:10.37,2013-07-04 19:03:00,
2013-07-04 12:05:00,62.5,55.2,30.13,WSW,240,0.0,0.0,77,0.00,CLR,OVC,0.00,WeatherDisplay:10.37,2013-07-04 19:05:00,
2013-07-04 12:06:00,62.5,55.2,30.13,WSW,240,0.3,2.0,77,0.00,CLR,OVC,0.00,WeatherDisplay:10.37,2013-07-04 19:06:00,
2013-07-04 12:08:00,62.5,54.8,30.14,WSW,240,1.6,2.3,76,0.00,CLR,OVC,0.00,WeatherDisplay:10.37,2013-07-04 19:08:00,
2013-07-04 12:11:00,62.5,54.8,30.14,WSW,240,0.4,1.2,76,0.00,CLR,OVC,0.00,WeatherDisplay:10.37,2013-07-04 19:11:00,
2013-07-04 12:12:00,62.4,54.7,30.14,WSW,240,0.0,1.2,76,0.00,CLR,OVC,0.00,WeatherDisplay:10.37,2013-07-04 19:12:00,
2013-07-04 12:13:00,62.3,54.6,30.14,WSW,240,0.4,1.2,76,0.00,CLR,OVC,0.00,WeatherDisplay:10.37,2013-07-04 19:13:00,
2013-07-04 12:16:00,62.4,55.1,30.14,WSW,240,0.9,1.2,77,0.00,CLR,OVC,0.00,WeatherDisplay:10.37,2013-07-04 19:16:00,
2013-07-04 12:18:00,62.4,55.1,30.14,WSW,240,0.4,3.5,77,0.00,CLR,OVC,0.00,WeatherDisplay:10.37,2013-07-04 19:18:00,
2013-07-04 12:21:00,62.6,55.3,30.14,WSW,240,0.3,0.0,77,0.00,CLR,OVC,0.00,WeatherDisplay:10.37,2013-07-04 19:21:00,
2013-07-04 12:23:00,62.6,55.3,30.14,WSW,240,0.5,3.5,77,0.00,CLR,OVC,0.00,WeatherDisplay:10.37,2013-07-04 19:23:00,
2013-07-04 12:24:00,62.6,54.9,30.14,WSW,239,1.0,2.0,76,0.00,CLR,OVC,0.00,WeatherDisplay:10.37,2013-07-04 19:24:00,
2013-07-04 12:26:00,62.5,55.2,30.14,WSW,239,0.1,3.5,77,0.00,CLR,OVC,0.00,WeatherDisplay:10.37,2013-07-04 19:26:00,
2013-07-04 12:27:00,62.5,55.2,30.14,SW,229,1.4,3.0,77,0.00,CLR,OVC,0.00,WeatherDisplay:10.37,2013-07-04 19:27:00,
2013-07-04 12:29:00,62.5,55.2,30.14,SW,226,2.6,5.0,77,0.00,CLR,OVC,0.00,WeatherDisplay:10.37,2013-07-04 19:29:00,
2013-07-04 12:31:00,62.4,55.4,30.14,SW,232,0.1,3.5,78,0.00,CLR,OVC,0.00,WeatherDisplay:10.37,2013-07-04 19:31:00,
2013-07-04 12:32:00,62.4,55.4,30.14,SW,232,0.3,4.0,78,0.00,CLR,OVC,0.00,WeatherDisplay:10.37,2013-07-04 19:32:00,
2013-07-04 12:34:00,62.4,54.7,30.14,SW,232,0.0,2.3,76,0.00,CLR,OVC,0.00,WeatherDisplay:10.37,2013-07-04 19:34:00,
2013-07-04 12:37:00,62.5,55.2,30.14,SW,232,0.0,0.0,77,0.00,CLR,OVC,0.00,WeatherDisplay:10.37,2013-07-04 19:37:00,
2013-07-04 12:38:00,62.5,56.2,30.14,SW,232,0.0,0.0,80,0.00,CLR,OVC,0.00,WeatherDisplay:10.37,2013-07-04 19:38:00,
2013-07-04 12:39:00,62.6,56.3,30.14,SW,232,0.0,0.0,80,0.00,CLR,OVC,0.00,WeatherDisplay:10.37,2013-07-04 19:39:00,
2013-07-04 12:42:00,62.7,55.0,30.13,WSW,239,1.5,7.0,76,0.00,CLR,OVC,0.00,WeatherDisplay:10.37,2013-07-04 19:42:00,
2013-07-04 12:43:00,62.8,54.8,30.14,WSW,239,1.8,8.1,75,0.00,CLR,OVC,0.00,WeatherDisplay:10.37,2013-07-04 19:43:00,
2013-07-04 12:44:00,62.7,55.0,30.14,WSW,240,3.1,5.0,76,0.00,CLR,OVC,0.00,WeatherDisplay:10.37,2013-07-04 19:44:00,
2013-07-04 12:47:00,62.7,54.7,30.14,WSW,245,0.3,1.2,75,0.00,CLR,OVC,0.00,WeatherDisplay:10.37,2013-07-04 19:47:00,
2013-07-04 12:48:00,62.8,55.1,30.14,WSW,245,0.0,1.2,76,0.00,CLR,OVC,0.00,WeatherDisplay:10.37,2013-07-04 19:48:00,
2013-07-04 12:49:00,62.8,55.5,30.14,WSW,245,0.0,0.0,77,0.00,CLR,OVC,0.00,WeatherDisplay:10.37,2013-07-04 19:49:00,
2013-07-04 12:50:00,62.8,55.5,30.14,WSW,245,0.0,0.0,77,0.00,CLR,OVC,0.00,WeatherDisplay:10.37,2013-07-04 19:50:00,
2013-07-04 12:52:00,63.1,56.1,30.13,WSW,245,0.0,1.2,78,0.00,CLR,OVC,0.00,WeatherDisplay:10.37,2013-07-04 19:52:00,
2013-07-04 12:53:00,63.1,56.1,30.13,WSW,245,0.1,1.2,78,0.00,CLR,OVC,0.00,WeatherDisplay:10.37,2013-07-04 19:53:00,
2013-07-04 12:54:00,63.2,55.9,30.13,WSW,245,0.5,4.0,77,0.00,CLR,OVC,0.00,WeatherDisplay:10.37,2013-07-04 19:54:00,
2013-07-04 12:55:00,63.3,56.3,30.13,WSW,245,1.4,3.5,78,0.00,CLR,OVC,0.00,WeatherDisplay:10.37,2013-07-04 19:55:00,
2013-07-04 12:57:00,63.6,55.5,30.13,WSW,245,1.0,1.2,75,0.00,CLR,OVC,0.00,WeatherDisplay:10.37,2013-07-04 19:57:00,
2013-07-04 12:58:00,63.6,55.5,30.13,WSW,245,0.0,3.5,75,0.00,CLR,OVC,0.00,WeatherDisplay:10.37,2013-07-04 19:58:00,
2013-07-04 12:59:00,63.6,55.9,30.13,WSW,245,1.3,3.5,76,0.00,CLR,OVC,0.00,WeatherDisplay:10.37,2013-07-04 19:59:00,
2013-07-04 13:00:00,63.7,55.3,30.13,WSW,245,0.9,3.5,74,0.00,CLR,OVC,0.00,WeatherDisplay:10.37,2013-07-04 20:00:00,
2013-07-04 13:03:00,63.7,55.3,30.13,WSW,245,1.9,3.5,74,0.00,CLR,OVC,0.00,WeatherDisplay:10.37,2013-07-04 20:03:00,
2013-07-04 13:04:00,63.7,55.6,30.13,WSW,242,1.8,2.0,75,0.00,CLR,OVC,0.00,WeatherDisplay:10.37,2013-07-04 20:04:00,
2013-07-04 13:05:00,63.7,56.0,30.13,WSW,243,1.3,3.5,76,0.00,CLR,OVC,0.00,WeatherDisplay:10.37,2013-07-04 20:05:00,
2013-07-04 13:06:00,63.7,56.0,30.13,WSW,243,1.4,4.6,76,0.00,CLR,OVC,0.00,WeatherDisplay:10.37,2013-07-04 20:06:00,
2013-07-04 13:08:00,63.8,55.7,30.13,WSW,243,1.0,3.5,75,0.00,CLR,OVC,0.00,WeatherDisplay:10.37,2013-07-04 20:08:00,
2013-07-04 13:09:00,63.8,55.7,30.13,WSW,243,0.1,1.2,75,0.00,CLR,OVC,0.00,WeatherDisplay:10.37,2013-07-04 20:09:00,
2013-07-04 13:10:00,63.8,56.1,30.13,WSW,244,0.0,3.0,76,0.00,CLR,OVC,0.00,WeatherDisplay:10.37,2013-07-04 20:10:00,
2013-07-04 13:11:00,63.9,55.8,30.13,WSW,243,0.0,0.0,75,0.00,CLR,OVC,0.00,WeatherDisplay:10.37,2013-07-04 20:11:00,
2013-07-04 13:13:00,64.4,56.3,30.13,WSW,244,3.9,4.6,75,0.00,CLR,OVC,0.00,WeatherDisplay:10.37,2013-07-04 20:13:00,
2013-07-04 13:14:00,64.6,56.1,30.13,WSW,248,3.3,5.8,74,0.00,CLR,OVC,0.00,WeatherDisplay:10.37,2013-07-04 20:14:00,
2013-07-04 13:15:00,64.8,56.7,30.13,WSW,247,2.0,6.0,75,0.00,CLR,OVC,0.00,WeatherDisplay:10.37,2013-07-04 20:15:00,
2013-07-04 13:16:00,65.0,56.5,30.13,WSW,248,4.1,5.8,74,0.00,CLR,OVC,0.00,WeatherDisplay:10.37,2013-07-04 20:16:00,
2013-07-04 13:18:00,65.3,56.4,30.13,WSW,248,0.0,1.2,73,0.00,CLR,OVC,0.00,WeatherDisplay:10.37,2013-07-04 20:18:00,
2013-07-04 13:19:00,65.4,56.5,30.13,WSW,248,0.1,1.2,73,0.00,CLR,OVC,0.00,WeatherDisplay:10.37,2013-07-04 20:19:00,
2013-07-04 13:20:00,65.4,56.5,30.13,WSW,248,0.0,0.0,73,0.00,CLR,OVC,0.00,WeatherDisplay:10.37,2013-07-04 20:20:00,
2013-07-04 13:21:00,65.4,56.5,30.13,WSW,248,0.0,1.0,73,0.00,CLR,OVC,0.00,WeatherDisplay:10.37,2013-07-04 20:21:00,
2013-07-04 13:23:00,65.4,56.9,30.13,WSW,248,0.0,1.2,74,0.00,CLR,OVC,0.00,WeatherDisplay:10.37,2013-07-04 20:23:00,
2013-07-04 13:24:00,65.4,56.1,30.13,WSW,248,0.4,1.2,72,0.00,CLR,OVC,0.00,WeatherDisplay:10.37,2013-07-04 20:24:00,
2013-07-04 13:26:00,65.3,55.7,30.13,WSW,250,3.4,5.8,71,0.00,CLR,OVC,0.00,WeatherDisplay:10.37,2013-07-04 20:26:00,
2013-07-04 13:28:00,65.0,56.1,30.13,WSW,250,0.1,1.2,73,0.00,CLR,OVC,0.00,WeatherDisplay:10.37,2013-07-04 20:28:00,
2013-07-04 13:30:00,64.8,55.6,30.13,WSW,250,0.6,3.5,72,0.00,CLR,OVC,0.00,WeatherDisplay:10.37,2013-07-04 20:30:00,
2013-07-04 13:31:00,64.7,55.5,30.13,WSW,248,1.4,4.6,72,0.00,CLR,OVC,0.00,WeatherDisplay:10.37,2013-07-04 20:31:00,
2013-07-04 13:34:00,64.5,56.0,30.13,WSW,248,0.0,0.0,74,0.00,CLR,OVC,0.00,WeatherDisplay:10.37,2013-07-04 20:34:00,
2013-07-04 13:35:00,64.5,56.0,30.13,WSW,248,0.7,3.5,74,0.00,CLR,OVC,0.00,WeatherDisplay:10.37,2013-07-04 20:35:00,
2013-07-04 13:36:00,64.4,55.6,30.13,WSW,248,0.5,2.3,73,0.00,CLR,OVC,0.00,WeatherDisplay:10.37,2013-07-04 20:36:00,
2013-07-04 13:37:00,64.5,55.7,30.13,WSW,248,0.5,2.3,73,0.00,CLR,OVC,0.00,WeatherDisplay:10.37,2013-07-04 20:37:00,
2013-07-04 13:39:00,64.5,56.4,30.13,WSW,248,0.1,1.2,75,0.00,CLR,OVC,0.00,WeatherDisplay:10.37,2013-07-04 20:39:00,
2013-07-04 13:40:00,64.7,56.2,30.13,WSW,248,0.0,1.2,74,0.00,CLR,OVC,0.00,WeatherDisplay:10.37,2013-07-04 20:40:00,
2013-07-04 13:41:00,64.7,56.2,30.13,WSW,248,0.0,1.2,74,0.00,CLR,OVC,0.00,WeatherDisplay:10.37,2013-07-04 20:41:00,
2013-07-04 13:42:00,64.8,56.3,30.13,WSW,248,1.7,3.5,74,0.00,CLR,OVC,0.00,WeatherDisplay:10.37,2013-07-04 20:42:00,
2013-07-04 13:44:00,64.9,56.4,30.13,WSW,248,1.8,3.5,74,0.00,CLR,OVC,0.00,WeatherDisplay:10.37,2013-07-04 20:44:00,
2013-07-04 13:46:00,64.9,55.7,30.12,WSW,254,2.1,6.9,72,0.00,CLR,OVC,0.00,WeatherDisplay:10.37,2013-07-04 20:46:00,
2013-07-04 13:47:00,64.9,55.7,30.12,WSW,254,1.9,4.6,72,0.00,CLR,OVC,0.00,WeatherDisplay:10.37,2013-07-04 20:47:00,
2013-07-04 13:50:00,65.0,55.4,30.12,WSW,254,0.0,1.2,71,0.00,CLR,OVC,0.00,WeatherDisplay:10.37,2013-07-04 20:50:00,
2013-07-04 13:51:00,65.0,56.5,30.12,WSW,254,0.1,1.0,74,0.00,CLR,OVC,0.00,WeatherDisplay:10.37,2013-07-04 20:51:00,
2013-07-04 13:52:00,65.1,56.6,30.12,WSW,254,0.3,1.2,74,0.00,CLR,OVC,0.00,WeatherDisplay:10.37,2013-07-04 20:52:00,
2013-07-04 13:55:00,65.2,56.7,30.12,WSW,254,0.5,3.5,74,0.00,CLR,OVC,0.00,WeatherDisplay:10.37,2013-07-04 20:55:00,
2013-07-04 13:56:00,65.3,56.0,30.12,WSW,254,1.1,3.5,72,0.00,CLR,OVC,0.00,WeatherDisplay:10.37,2013-07-04 20:56:00,
2013-07-04 13:57:00,65.3,56.0,30.12,WSW,254,0.3,3.5,72,0.00,CLR,OVC,0.00,WeatherDisplay:10.37,2013-07-04 20:57:00,
2013-07-04 14:00:00,65.4,56.5,30.12,WSW,245,2.2,3.5,73,0.00,CLR,OVC,0.00,WeatherDisplay:10.37,2013-07-04 21:00:00,
2013-07-04 14:02:00,65.4,56.5,30.12,WSW,245,0.2,0.0,73,0.00,CLR,OVC,0.00,WeatherDisplay:10.37,2013-07-04 21:02:00,
2013-07-04 14:03:00,65.4,56.5,30.12,WSW,245,0.0,1.2,73,0.00,CLR,OVC,0.00,WeatherDisplay:10.37,2013-07-04 21:03:00,
2013-07-04 14:05:00,65.4,55.7,30.12,WSW,245,0.9,3.5,71,0.00,CLR,OVC,0.00,WeatherDisplay:10.37,2013-07-04 21:05:00,
2013-07-04 14:07:00,65.3,56.0,30.12,WSW,245,0.1,1.2,72,0.00,CLR,OVC,0.00,WeatherDisplay:10.37,2013-07-04 21:07:00,
2013-07-04 14:08:00,65.4,56.9,30.12,WSW,245,0.0,0.0,74,0.00,CLR,OVC,0.00,WeatherDisplay:10.37,2013-07-04 21:08:00,
2013-07-04 14:10:00,65.4,56.9,30.12,WSW,245,0.0,1.0,74,0.00,CLR,OVC,0.00,WeatherDisplay:10.37,2013-07-04 21:10:00,
2013-07-04 14:12:00,65.5,57.0,30.12,WSW,245,0.1,1.0,74,0.00,CLR,OVC,0.00,WeatherDisplay:10.37,2013-07-04 21:12:00,
2013-07-04 14:13:00,65.6,57.1,30.12,WSW,245,0.2,1.2,74,0.00,CLR,OVC,0.00,WeatherDisplay:10.37,2013-07-04 21:13:00,
2013-07-04 14:15:00,65.7,55.6,30.12,WSW,245,0.0,1.2,70,0.00,CLR,OVC,0.00,WeatherDisplay:10.37,2013-07-04 21:15:00,
2013-07-04 14:17:00,65.8,56.9,30.12,WSW,245,0.2,2.3,73,0.00,CLR,OVC,0.00,WeatherDisplay:10.37,2013-07-04 21:17:00,
2013-07-04 14:18:00,65.9,57.4,30.12,WSW,245,0.0,2.3,74,0.00,CLR,OVC,0.00,WeatherDisplay:10.37,2013-07-04 21:18:00,
2013-07-04 14:21:00,66.0,56.7,30.12,WSW,245,0.0,1.2,72,0.00,CLR,OVC,0.00,WeatherDisplay:10.37,2013-07-04 21:21:00,
2013-07-04 14:22:00,66.1,56.8,30.12,WSW,245,0.0,0.0,72,0.00,CLR,OVC,0.00,WeatherDisplay:10.37,2013-07-04 21:22:00,
2013-07-04 14:23:00,66.1,56.8,30.12,WSW,245,0.0,1.2,72,0.00,CLR,OVC,0.00,WeatherDisplay:10.37,2013-07-04 21:23:00,
2013-07-04 14:24:00,66.2,57.3,30.12,WSW,245,0.0,0.0,73,0.00,CLR,OVC,0.00,WeatherDisplay:10.37,2013-07-04 21:24:00,
2013-07-04 14:26:00,66.1,55.6,30.12,WSW,245,0.6,2.3,69,0.00,CLR,OVC,0.00,WeatherDisplay:10.37,2013-07-04 21:26:00,
2013-07-04 14:27:00,66.1,56.4,30.12,WSW,246,0.3,4.0,71,0.00,CLR,OVC,0.00,WeatherDisplay:10.37,2013-07-04 21:27:00,
2013-07-04 14:28:00,66.1,56.4,30.12,WSW,248,1.4,3.5,71,0.00,CLR,OVC,0.00,WeatherDisplay:10.37,2013-07-04 21:28:00,
2013-07-04 14:29:00,66.1,55.6,30.12,WSW,247,0.6,3.5,69,0.00,CLR,OVC,0.00,WeatherDisplay:10.37,2013-07-04 21:29:00,
2013-07-04 14:31:00,66.3,56.2,30.11,WSW,247,0.2,4.6,70,0.00,CLR,OVC,0.00,WeatherDisplay:10.37,2013-07-04 21:31:00,
2013-07-04 14:32:00,66.4,56.3,30.11,WSW,248,0.4,1.2,70,0.00,CLR,OVC,0.00,WeatherDisplay:10.37,2013-07-04 21:32:00,
2013-07-04 14:33:00,66.5,56.4,30.11,WSW,248,0.8,1.2,70,0.00,CLR,OVC,0.00,WeatherDisplay:10.37,2013-07-04 21:33:00,
2013-07-04 14:34:00,66.5,56.0,30.11,WSW,247,1.9,3.5,69,0.00,CLR,OVC,0.00,WeatherDisplay:10.37,2013-07-04 21:34:00,
2013-07-04 14:37:00,66.7,56.6,30.11,WSW,247,1.9,4.6,70,0.00,CLR,OVC,0.00,WeatherDisplay:10.37,2013-07-04 21:37:00,
2013-07-04 14:38:00,66.7,57.0,30.11,WSW,247,1.5,4.0,71,0.00,CLR,OVC,0.00,WeatherDisplay:10.37,2013-07-04 21:38:00,
2013-07-04 14:39:00,66.9,56.4,30.11,WSW,247,0.8,3.5,69,0.00,CLR,OVC,0.00,WeatherDisplay:10.37,2013-07-04 21:39:00,
2013-07-04 14:42:00,67.1,56.2,30.11,WSW,248,0.1,1.2,68,0.00,CLR,OVC,0.00,WeatherDisplay:10.37,2013-07-04 21:42:00,
2013-07-04 14:43:00,67.2,57.1,30.11,WSW,248,0.8,2.3,70,0.00,CLR,OVC,0.00,WeatherDisplay:10.37,2013-07-04 21:43:00,
2013-07-04 14:44:00,67.4,57.3,30.11,WSW,244,2.8,6.0,70,0.00,CLR,OVC,0.00,WeatherDisplay:10.37,2013-07-04 21:44:00,
2013-07-04 14:50:00,67.9,56.9,30.11,WSW,245,1.2,2.0,68,0.00,CLR,OVC,0.00,WeatherDisplay:10.37,2013-07-04 21:50:00,
2013-07-04 14:51:00,67.9,56.9,30.11,WSW,245,1.5,2.3,68,0.00,CLR,OVC,0.00,WeatherDisplay:10.37,2013-07-04 21:51:00,
2013-07-04 14:55:00,67.7,55.9,30.11,WSW,238,2.4,4.0,66,0.00,CLR,OVC,0.00,WeatherDisplay:10.37,2013-07-04 21:55:00,
2013-07-04 14:56:00,67.6,56.2,30.11,WSW,238,2.6,4.6,67,0.00,CLR,OVC,0.00,WeatherDisplay:10.37,2013-07-04 21:56:00,
2013-07-04 15:00:00,67.1,56.6,30.11,WSW,238,0.2,3.5,69,0.00,CLR,OVC,0.00,WeatherDisplay:10.37,2013-07-04 22:00:00,
2013-07-04 15:01:00,67.0,56.9,30.11,WSW,238,0.3,1.2,70,0.00,CLR,OVC,0.00,WeatherDisplay:10.37,2013-07-04 22:01:00,
2013-07-04 15:05:00,66.7,56.6,30.11,WSW,242,3.5,6.9,70,0.00,CLR,OVC,0.00,WeatherDisplay:10.37,2013-07-04 22:05:00,
2013-07-04 15:06:00,66.7,56.6,30.11,WSW,242,3.5,6.9,70,0.00,CLR,OVC,0.00,WeatherDisplay:10.37,2013-07-04 22:06:00,
2013-07-04 15:10:00,66.7,56.6,30.11,WSW,241,2.1,5.8,70,0.00,CLR,OVC,0.00,WeatherDisplay:10.37,2013-07-04 22:10:00,
2013-07-04 15:11:00,66.8,56.7,30.11,WSW,241,2.2,5.8,70,0.00,CLR,OVC,0.00,WeatherDisplay:10.37,2013-07-04 22:11:00,
2013-07-04 15:12:00,66.7,56.2,30.11,WSW,241,0.2,2.3,69,0.00,CLR,OVC,0.00,WeatherDisplay:10.37,2013-07-04 22:12:00,
2013-07-04 15:16:00,66.7,57.0,30.11,WSW,241,0.0,0.0,71,0.00,CLR,OVC,0.00,WeatherDisplay:10.37,2013-07-04 22:16:00,
2013-07-04 15:17:00,66.8,56.7,30.11,WSW,241,0.0,1.2,70,0.00,CLR,OVC,0.00,WeatherDisplay:10.37,2013-07-04 22:17:00,
2013-07-04 15:21:00,66.7,56.2,30.11,WSW,243,0.8,1.2,69,0.00,CLR,OVC,0.00,WeatherDisplay:10.37,2013-07-04 22:21:00,
2013-07-04 15:22:00,66.6,55.7,30.11,WSW,243,0.5,3.5,68,0.00,CLR,OVC,0.00,WeatherDisplay:10.37,2013-07-04 22:22:00,
2013-07-04 15:23:00,66.6,56.5,30.11,WSW,243,2.6,4.6,70,0.00,CLR,OVC,0.00,WeatherDisplay:10.37,2013-07-04 22:23:00,
2013-07-04 15:26:00,66.5,56.4,30.10,WSW,243,0.2,2.3,70,0.00,CLR,OVC,0.00,WeatherDisplay:10.37,2013-07-04 22:26:00,
2013-07-04 15:27:00,66.5,56.8,30.10,North,360,0.7,3.0,71,0.00,CLR,OVC,0.00,WeatherDisplay:10.37,2013-07-04 22:27:00,
2013-07-04 15:28:00,66.5,56.4,30.11,WSW,248,1.2,4.6,70,0.00,CLR,OVC,0.00,WeatherDisplay:10.37,2013-07-04 22:28:00,
2013-07-04 15:31:00,66.7,57.0,30.10,WSW,247,1.5,3.5,71,0.00,CLR,OVC,0.00,WeatherDisplay:10.37,2013-07-04 22:31:00,
2013-07-04 15:32:00,66.8,56.3,30.10,WSW,248,1.0,3.5,69,0.00,CLR,OVC,0.00,WeatherDisplay:10.37,2013-07-04 22:32:00,
2013-07-04 15:33:00,66.8,56.3,30.10,WSW,248,1.5,2.3,69,0.00,CLR,OVC,0.00,WeatherDisplay:10.37,2013-07-04 22:33:00,
2013-07-04 15:36:00,67.0,56.9,30.10,WSW,244,1.7,5.8,70,0.00,CLR,OVC,0.00,WeatherDisplay:10.37,2013-07-04 22:36:00,
2013-07-04 15:37:00,67.1,56.6,30.10,WSW,244,0.6,3.5,69,0.00,CLR,OVC,0.00,WeatherDisplay:10.37,2013-07-04 22:37:00,
2013-07-04 15:38:00,67.1,56.6,30.10,WSW,244,0.1,1.2,69,0.00,CLR,OVC,0.00,WeatherDisplay:10.37,2013-07-04 22:38:00,
2013-07-04 15:39:00,67.2,56.7,30.10,WSW,244,0.0,1.2,69,0.00,CLR,OVC,0.00,WeatherDisplay:10.37,2013-07-04 22:39:00,
2013-07-04 15:41:00,67.4,56.9,30.10,WSW,244,0.0,1.2,69,0.00,CLR,OVC,0.00,WeatherDisplay:10.37,2013-07-04 22:41:00,
2013-07-04 15:42:00,67.5,57.0,30.10,WSW,242,0.0,1.2,69,0.00,CLR,OVC,0.00,WeatherDisplay:10.37,2013-07-04 22:42:00,
2013-07-04 15:43:00,67.5,57.0,30.10,WSW,242,0.4,1.2,69,0.00,CLR,OVC,0.00,WeatherDisplay:10.37,2013-07-04 22:43:00,
2013-07-04 15:44:00,67.5,55.7,30.10,WSW,242,0.9,3.5,66,0.00,CLR,OVC,0.00,WeatherDisplay:10.37,2013-07-04 22:44:00,
2013-07-04 15:46:00,67.4,56.1,30.10,South,175,0.2,1.2,67,0.00,CLR,OVC,0.00,WeatherDisplay:10.37,2013-07-04 22:46:00,
2013-07-04 15:48:00,67.1,55.4,30.10,South,189,0.2,3.5,66,0.00,CLR,OVC,0.00,WeatherDisplay:10.37,2013-07-04 22:48:00,
2013-07-04 15:49:00,67.0,55.7,30.10,South,189,0.9,3.5,67,0.00,CLR,OVC,0.00,WeatherDisplay:10.37,2013-07-04 22:49:00,
2013-07-04 15:51:00,66.7,55.4,30.10,West,261,2.8,11.5,67,0.00,CLR,OVC,0.00,WeatherDisplay:10.37,2013-07-04 22:51:00,
2013-07-04 15:53:00,66.6,55.7,30.10,WNW,292,0.0,4.6,68,0.00,CLR,OVC,0.00,WeatherDisplay:10.37,2013-07-04 22:53:00,
2013-07-04 15:54:00,66.6,55.7,30.10,NE,39,1.7,3.5,68,0.00,CLR,OVC,0.00,WeatherDisplay:10.37,2013-07-04 22:54:00,
2013-07-04 15:57:00,66.7,56.6,30.10,ENE,67,0.3,2.3,70,0.00,CLR,OVC,0.00,WeatherDisplay:10.37,2013-07-04 22:57:00,
2013-07-04 15:58:00,66.9,56.8,30.10,WSW,254,0.5,3.5,70,0.00,CLR,OVC,0.00,WeatherDisplay:10.37,2013-07-04 22:58:00,
2013-07-04 15:59:00,66.9,57.2,30.10,West,267,0.8,3.5,71,0.00,CLR,OVC,0.00,WeatherDisplay:10.37,2013-07-04 22:59:00,
2013-07-04 16:00:00,66.9,56.0,30.10,NNW,342,0.7,3.5,68,0.00,CLR,OVC,0.00,WeatherDisplay:10.37,2013-07-04 23:00:00,
2013-07-04 16:02:00,67.1,57.0,30.10,West,265,0.2,1.2,70,0.00,CLR,OVC,0.00,WeatherDisplay:10.37,2013-07-04 23:02:00,
2013-07-04 16:04:00,67.1,56.6,30.10,NE,41,1.0,3.5,69,0.00,CLR,OVC,0.00,WeatherDisplay:10.37,2013-07-04 23:04:00,
2013-07-04 16:05:00,67.2,57.1,30.10,NE,40,0.0,0.0,70,0.00,CLR,OVC,0.00,WeatherDisplay:10.37,2013-07-04 23:05:00,
2013-07-04 16:08:00,67.2,56.3,30.10,East,94,0.9,1.2,68,0.00,CLR,OVC,0.00,WeatherDisplay:10.37,2013-07-04 23:08:00,
2013-07-04 16:09:00,67.2,55.9,30.10,SW,217,0.1,4.6,67,0.00,CLR,OVC,0.00,WeatherDisplay:10.37,2013-07-04 23:09:00,
2013-07-04 16:10:00,67.2,56.3,30.10,WSW,252,0.7,3.5,68,0.00,CLR,OVC,0.00,WeatherDisplay:10.37,2013-07-04 23:10:00,
2013-07-04 16:14:00,67.2,55.9,30.10,ENE,71,0.2,1.0,67,0.00,CLR,OVC,0.00,WeatherDisplay:10.37,2013-07-04 23:14:00,
2013-07-04 16:15:00,67.2,56.3,30.10,ENE,71,0.2,2.3,68,0.00,CLR,OVC,0.00,WeatherDisplay:10.37,2013-07-04 23:15:00,
2013-07-04 16:19:00,67.2,57.1,30.10,NNE,32,0.0,1.2,70,0.00,CLR,OVC,0.00,WeatherDisplay:10.37,2013-07-04 23:19:00,
2013-07-04 16:20:00,67.3,56.0,30.10,North,360,0.6,1.2,67,0.00,CLR,OVC,0.00,WeatherDisplay:10.37,2013-07-04 23:20:00,
2013-07-04 16:24:00,67.1,56.2,30.09,WNW,288,0.1,1.2,68,0.00,CLR,OVC,0.00,WeatherDisplay:10.37,2013-07-04 23:24:00,
2013-07-04 16:25:00,67.1,56.2,30.09,WNW,288,0.0,1.2,68,0.00,CLR,OVC,0.00,WeatherDisplay:10.37,2013-07-04 23:25:00,
2013-07-04 16:29:00,66.9,55.6,30.09,WNW,286,0.6,3.5,67,0.00,CLR,OVC,0.00,WeatherDisplay:10.37,2013-07-04 23:29:00,
2013-07-04 16:30:00,66.9,55.6,30.09,SW,236,0.8,3.5,67,0.00,CLR,OVC,0.00,WeatherDisplay:10.37,2013-07-04 23:30:00,
2013-07-04 16:31:00,66.9,56.0,30.09,SW,236,0.1,3.5,68,0.00,CLR,OVC,0.00,WeatherDisplay:10.37,2013-07-04 23:31:00,
2013-07-04 16:35:00,66.8,55.5,30.09,WSW,257,0.2,2.3,67,0.00,CLR,OVC,0.00,WeatherDisplay:10.37,2013-07-04 23:35:00,
2013-07-04 16:36:00,66.8,55.5,30.09,WSW,257,0.0,1.2,67,0.00,CLR,OVC,0.00,WeatherDisplay:10.37,2013-07-04 23:36:00,
2013-07-04 16:40:00,66.5,55.2,30.09,WNW,296,0.3,2.3,67,0.00,CLR,OVC,0.00,WeatherDisplay:10.37,2013-07-04 23:40:00,
2013-07-04 16:41:00,66.5,55.2,30.09,WNW,296,0.0,0.0,67,0.00,CLR,OVC,0.00,WeatherDisplay:10.37,2013-07-04 23:41:00,
2013-07-04 16:45:00,66.3,55.8,30.09,SE,138,0.2,2.3,69,0.00,CLR,OVC,0.00,WeatherDisplay:10.37,2013-07-04 23:45:00,
2013-07-04 16:46:00,66.3,55.4,30.09,ENE,69,0.7,3.5,68,0.00,CLR,OVC,0.00,WeatherDisplay:10.37,2013-07-04 23:46:00,
2013-07-04 16:50:00,66.3,55.8,30.09,NW,316,0.1,1.2,69,0.00,CLR,OVC,0.00,WeatherDisplay:10.37,2013-07-04 23:50:00,
2013-07-04 16:51:00,66.3,56.2,30.09,NW,316,0.0,1.2,70,0.00,CLR,OVC,0.00,WeatherDisplay:10.37,2013-07-04 23:51:00,
2013-07-04 16:52:00,66.3,55.8,30.09,NE,43,0.0,1.2,69,0.00,CLR,OVC,0.00,WeatherDisplay:10.37,2013-07-04 23:52:00,
2013-07-04 16:55:00,66.3,55.8,30.09,NNW,345,1.0,5.0,69,0.00,CLR,OVC,0.00,WeatherDisplay:10.37,2013-07-04 23:55:00,
2013-07-04 16:56:00,66.2,55.3,30.09,North,355,1.4,4.6,68,0.00,CLR,OVC,0.00,WeatherDisplay:10.37,2013-07-04 23:56:00,
2013-07-04 16:57:00,66.2,56.1,30.09,North,350,0.4,2.3,70,0.00,CLR,OVC,0.00,WeatherDisplay:10.37,2013-07-04 23:57:00,
2013-07-04 17:00:00,66.2,55.7,30.09,North,350,0.0,1.2,69,0.00,CLR,OVC,0.00,WeatherDisplay:10.37,2013-07-05 00:00:00,
2013-07-04 17:01:00,66.2,56.1,30.09,ENE,72,0.5,4.0,70,0.00,CLR,OVC,0.00,WeatherDisplay:10.37,2013-07-05 00:01:00,
2013-07-04 17:02:00,66.2,56.1,30.09,ENE,73,0.9,3.5,70,0.00,CLR,OVC,0.00,WeatherDisplay:10.37,2013-07-05 00:02:00,
2013-07-04 17:05:00,66.0,55.5,30.09,ENE,72,0.0,0.0,69,0.00,CLR,OVC,0.00,WeatherDisplay:10.37,2013-07-05 00:05:00,
2013-07-04 17:06:00,66.0,55.5,30.09,ENE,72,0.2,0.0,69,0.00,CLR,OVC,0.00,WeatherDisplay:10.37,2013-07-05 00:06:00,
2013-07-04 17:07:00,66.0,55.1,30.09,ENE,69,0.0,1.2,68,0.00,CLR,OVC,0.00,WeatherDisplay:10.37,2013-07-05 00:07:00,
2013-07-04 17:10:00,65.9,55.0,30.09,ENE,67,0.0,1.2,68,0.00,CLR,OVC,0.00,WeatherDisplay:10.37,2013-07-05 00:10:00,
2013-07-04 17:11:00,65.8,54.9,30.09,ENE,67,0.0,1.2,68,0.00,CLR,OVC,0.00,WeatherDisplay:10.37,2013-07-05 00:11:00,
2013-07-04 17:12:00,65.8,55.3,30.09,ENE,69,0.3,2.3,69,0.00,CLR,OVC,0.00,WeatherDisplay:10.37,2013-07-05 00:12:00,
2013-07-04 17:13:00,65.8,55.3,30.09,ENE,69,0.0,2.3,69,0.00,CLR,OVC,0.00,WeatherDisplay:10.37,2013-07-05 00:13:00,
2013-07-04 17:15:00,65.7,54.8,30.09,ENE,69,0.0,3.5,68,0.00,CLR,OVC,0.00,WeatherDisplay:10.37,2013-07-05 00:15:00,
2013-07-04 17:16:00,65.6,54.8,30.09,ENE,58,1.3,3.5,68,0.00,CLR,OVC,0.00,WeatherDisplay:10.37,2013-07-05 00:16:00,
2013-07-04 17:17:00,65.6,54.8,30.09,ENE,58,1.2,3.5,68,0.00,CLR,OVC,0.00,WeatherDisplay:10.37,2013-07-05 00:17:00,
2013-07-04 17:18:00,65.6,54.8,30.09,ENE,58,0.1,2.3,68,0.00,CLR,OVC,0.00,WeatherDisplay:10.37,2013-07-05 00:18:00,
2013-07-04 17:21:00,65.5,55.5,30.09,ENE,59,0.0,1.2,70,0.00,CLR,OVC,0.00,WeatherDisplay:10.37,2013-07-05 00:21:00,
2013-07-04 17:22:00,65.4,55.0,30.09,ENE,75,0.3,1.2,69,0.00,CLR,OVC,0.00,WeatherDisplay:10.37,2013-07-05 00:22:00,
2013-07-04 17:23:00,65.4,55.4,30.09,ENE,74,1.0,2.3,70,0.00,CLR,OVC,0.00,WeatherDisplay:10.37,2013-07-05 00:23:00,
2013-07-04 17:26:00,65.4,54.6,30.08,ENE,74,0.2,0.0,68,0.00,CLR,OVC,0.00,WeatherDisplay:10.37,2013-07-05 00:26:00,
2013-07-04 17:27:00,65.3,54.9,30.09,ENE,74,0.3,2.3,69,0.00,CLR,OVC,0.00,WeatherDisplay:10.37,2013-07-05 00:27:00,
2013-07-04 17:28:00,65.3,54.9,30.09,ENE,73,0.0,1.2,69,0.00,CLR,OVC,0.00,WeatherDisplay:10.37,2013-07-05 00:28:00,
2013-07-04 17:31:00,65.3,54.9,30.09,ENE,73,0.1,1.2,69,0.00,CLR,OVC,0.00,WeatherDisplay:10.37,2013-07-05 00:31:00,
2013-07-04 17:32:00,65.2,55.2,30.08,ENE,73,0.1,1.2,70,0.00,CLR,OVC,0.00,WeatherDisplay:10.37,2013-07-05 00:32:00,
2013-07-04 17:33:00,65.2,54.8,30.08,ENE,73,0.5,1.2,69,0.00,CLR,OVC,0.00,WeatherDisplay:10.37,2013-07-05 00:33:00,
2013-07-04 17:34:00,65.2,54.8,30.09,WNW,289,1.6,3.0,69,0.00,CLR,OVC,0.00,WeatherDisplay:10.37,2013-07-05 00:34:00,
2013-07-04 17:36:00,65.0,54.6,30.09,West,277,0.8,5.8,69,0.00,CLR,OVC,0.00,WeatherDisplay:10.37,2013-07-05 00:36:00,
2013-07-04 17:38:00,65.0,54.6,30.09,West,277,0.3,2.3,69,0.00,CLR,OVC,0.00,WeatherDisplay:10.37,2013-07-05 00:38:00,
2013-07-04 17:39:00,64.9,54.9,30.09,West,277,0.1,1.2,70,0.00,CLR,OVC,0.00,WeatherDisplay:10.37,2013-07-05 00:39:00,
2013-07-04 17:41:00,64.8,54.8,30.08,WSW,252,1.0,2.3,70,0.00,CLR,OVC,0.00,WeatherDisplay:10.37,2013-07-05 00:41:00,
2013-07-04 17:43:00,64.8,54.8,30.08,WNW,284,1.4,1.4,70,0.00,CLR,OVC,0.00,WeatherDisplay:10.37,2013-07-05 00:43:00,
2013-07-04 17:44:00,64.7,54.7,30.08,West,275,1.0,4.6,70,0.00,CLR,OVC,0.00,WeatherDisplay:10.37,2013-07-05 00:44:00,
2013-07-04 17:47:00,64.7,55.1,30.08,West,262,0.1,0.0,71,0.00,CLR,OVC,0.00,WeatherDisplay:10.37,2013-07-05 00:47:00,
2013-07-04 17:48:00,64.7,54.7,30.08,West,262,0.1,2.3,70,0.00,CLR,OVC,0.00,WeatherDisplay:10.37,2013-07-05 00:48:00,
2013-07-04 17:49:00,64.8,55.2,30.08,West,262,0.2,2.3,71,0.00,CLR,OVC,0.00,WeatherDisplay:10.37,2013-07-05 00:49:00,
2013-07-04 17:52:00,64.8,54.8,30.08,WSW,247,0.0,0.0,70,0.00,CLR,OVC,0.00,WeatherDisplay:10.37,2013-07-05 00:52:00,
2013-07-04 17:53:00,64.8,54.8,30.08,WSW,244,0.2,1.2,70,0.00,CLR,OVC,0.00,WeatherDisplay:10.37,2013-07-05 00:53:00,
2013-07-04 17:54:00,64.8,54.8,30.08,WSW,245,0.1,1.2,70,0.00,CLR,OVC,0.00,WeatherDisplay:10.37,2013-07-05 00:54:00,
2013-07-04 17:58:00,64.8,55.2,30.08,West,269,0.0,3.5,71,0.00,CLR,OVC,0.00,WeatherDisplay:10.37,2013-07-05 00:58:00,
2013-07-04 17:59:00,64.9,54.9,30.08,West,269,0.0,0.0,70,0.00,CLR,OVC,0.00,WeatherDisplay:10.37,2013-07-05 00:59:00,
2013-07-04 18:03:00,64.9,55.3,30.08,West,269,0.0,1.2,71,0.00,CLR,OVC,0.00,WeatherDisplay:10.37,2013-07-05 01:03:00,
2013-07-04 18:04:00,64.9,55.3,30.08,West,269,0.1,1.2,71,0.00,CLR,OVC,0.00,WeatherDisplay:10.37,2013-07-05 01:04:00,
2013-07-04 18:05:00,64.9,55.3,30.08,West,269,0.0,1.0,71,0.00,CLR,OVC,0.00,WeatherDisplay:10.37,2013-07-05 01:05:00,
2013-07-04 18:08:00,65.0,54.2,30.08,NNW,347,1.2,3.5,68,0.00,CLR,OVC,0.00,WeatherDisplay:10.37,2013-07-05 01:08:00,
2013-07-04 18:09:00,65.0,54.6,30.08,WSW,256,0.8,3.5,69,0.00,CLR,OVC,0.00,WeatherDisplay:10.37,2013-07-05 01:09:00,
2013-07-04 18:10:00,64.9,54.5,30.08,WSW,256,0.9,3.5,69,0.00,CLR,OVC,0.00,WeatherDisplay:10.37,2013-07-05 01:10:00,
2013-07-04 18:11:00,64.9,54.5,30.08,WSW,256,0.0,1.2,69,0.00,CLR,OVC,0.00,WeatherDisplay:10.37,2013-07-05 01:11:00,
2013-07-04 18:13:00,64.8,54.8,30.08,WSW,256,0.0,0.0,70,0.00,CLR,OVC,0.00,WeatherDisplay:10.37,2013-07-05 01:13:00,
2013-07-04 18:14:00,64.9,54.5,30.08,North,5,0.3,3.0,69,0.00,CLR,OVC,0.00,WeatherDisplay:10.37,2013-07-05 01:14:00,
2013-07-04 18:15:00,64.8,55.2,30.08,North,5,0.4,3.5,71,0.00,CLR,OVC,0.00,WeatherDisplay:10.37,2013-07-05 01:15:00,
2013-07-04 18:16:00,64.8,55.2,30.08,North,5,0.0,1.2,71,0.00,CLR,OVC,0.00,WeatherDisplay:10.37,2013-07-05 01:16:00,
2013-07-04 18:18:00,64.8,54.4,30.08,West,281,0.5,3.5,69,0.00,CLR,OVC,0.00,WeatherDisplay:10.37,2013-07-05 01:18:00,
2013-07-04 18:19:00,64.8,54.4,30.08,West,281,0.1,3.5,69,0.00,CLR,OVC,0.00,WeatherDisplay:10.37,2013-07-05 01:19:00,
2013-07-04 18:20:00,64.8,54.4,30.08,West,281,0.1,1.2,69,0.00,CLR,OVC,0.00,WeatherDisplay:10.37,2013-07-05 01:20:00,
2013-07-04 18:21:00,64.8,55.2,30.08,West,281,0.4,1.2,71,0.00,CLR,OVC,0.00,WeatherDisplay:10.37,2013-07-05 01:21:00,
2013-07-04 18:23:00,64.7,55.1,30.08,WSW,251,0.5,3.5,71,0.00,CLR,OVC,0.00,WeatherDisplay:10.37,2013-07-05 01:23:00,
2013-07-04 18:24:00,64.7,54.3,30.08,WSW,251,0.3,3.5,69,0.00,CLR,OVC,0.00,WeatherDisplay:10.37,2013-07-05 01:24:00,
2013-07-04 18:25:00,64.7,54.7,30.08,WSW,251,0.0,3.5,70,0.00,CLR,OVC,0.00,WeatherDisplay:10.37,2013-07-05 01:25:00,
2013-07-04 18:26:00,64.7,55.1,30.08,WSW,251,0.0,0.0,71,0.00,CLR,OVC,0.00,WeatherDisplay:10.37,2013-07-05 01:26:00,
2013-07-04 18:29:00,64.6,55.0,30.08,WNW,298,0.4,1.0,71,0.00,CLR,OVC,0.00,WeatherDisplay:10.37,2013-07-05 01:29:00,
2013-07-04 18:30:00,64.6,55.0,30.08,NW,317,0.1,2.3,71,0.00,CLR,OVC,0.00,WeatherDisplay:10.37,2013-07-05 01:30:00,
2013-07-04 18:32:00,64.6,54.2,30.08,NW,317,0.0,1.2,69,0.00,CLR,OVC,0.00,WeatherDisplay:10.37,2013-07-05 01:32:00,
2013-07-04 18:34:00,64.5,54.5,30.08,WNW,292,0.1,2.3,70,0.00,CLR,OVC,0.00,WeatherDisplay:10.37,2013-07-05 01:34:00,
2013-07-04 18:35:00,64.4,54.4,30.08,WNW,292,0.0,1.2,70,0.00,CLR,OVC,0.00,WeatherDisplay:10.37,2013-07-05 01:35:00,
2013-07-04 18:36:00,64.4,54.4,30.08,WNW,292,0.1,2.0,70,0.00,CLR,OVC,0.00,WeatherDisplay:10.37,2013-07-05 01:36:00,
2013-07-04 18:37:00,64.3,53.9,30.08,WSW,257,3.1,4.6,69,0.00,CLR,OVC,0.00,WeatherDisplay:10.37,2013-07-05 01:37:00,
2013-07-04 18:39:00,64.1,53.7,30.08,WSW,258,0.8,1.2,69,0.00,CLR,OVC,0.00,WeatherDisplay:10.37,2013-07-05 01:39:00,
2013-07-04 18:41:00,64.0,54.4,30.08,WSW,258,0.2,1.2,71,0.00,CLR,OVC,0.00,WeatherDisplay:10.37,2013-07-05 01:41:00,
2013-07-04 18:42:00,64.0,54.4,30.08,WSW,258,0.0,1.2,71,0.00,CLR,OVC,0.00,WeatherDisplay:10.37,2013-07-05 01:42:00,
2013-07-04 18:44:00,63.8,53.8,30.08,West,261,0.1,1.2,70,0.00,CLR,OVC,0.00,WeatherDisplay:10.37,2013-07-05 01:44:00,
2013-07-04 18:46:00,63.7,54.1,30.08,West,261,0.0,1.2,71,0.00,CLR,OVC,0.00,WeatherDisplay:10.37,2013-07-05 01:46:00,
2013-07-04 18:47:00,63.7,54.1,30.08,West,261,0.0,1.2,71,0.00,CLR,OVC,0.00,WeatherDisplay:10.37,2013-07-05 01:47:00,
2013-07-04 18:49:00,63.6,53.6,30.08,West,279,1.6,6.9,70,0.00,CLR,OVC,0.00,WeatherDisplay:10.37,2013-07-05 01:49:00,
2013-07-04 18:50:00,63.6,54.0,30.08,West,279,0.1,4.6,71,0.00,CLR,OVC,0.00,WeatherDisplay:10.37,2013-07-05 01:50:00,
2013-07-04 18:51:00,63.5,53.9,30.08,West,279,0.0,0.0,71,0.00,CLR,OVC,0.00,WeatherDisplay:10.37,2013-07-05 01:51:00,
2013-07-04 18:52:00,63.5,53.9,30.08,West,279,0.0,0.0,71,0.00,CLR,OVC,0.00,WeatherDisplay:10.37,2013-07-05 01:52:00,
2013-07-04 18:54:00,63.5,53.9,30.08,West,279,0.0,0.0,71,0.00,CLR,OVC,0.00,WeatherDisplay:10.37,2013-07-05 01:54:00,
2013-07-04 18:55:00,63.5,53.9,30.08,West,279,0.0,0.0,71,0.00,CLR,OVC,0.00,WeatherDisplay:10.37,2013-07-05 01:55:00,
2013-07-04 18:56:00,63.5,53.9,30.08,West,279,0.0,0.0,71,0.00,CLR,OVC,0.00,WeatherDisplay:10.37,2013-07-05 01:56:00,
2013-07-04 18:57:00,63.4,53.8,30.08,West,279,0.0,1.2,71,0.00,CLR,OVC,0.00,WeatherDisplay:10.37,2013-07-05 01:57:00,
2013-07-04 18:59:00,63.4,53.8,30.08,WSW,254,0.0,3.5,71,0.00,CLR,OVC,0.00,WeatherDisplay:10.37,2013-07-05 01:59:00,
2013-07-04 19:00:00,63.3,54.1,30.08,WSW,254,0.0,3.5,72,0.00,CLR,OVC,0.00,WeatherDisplay:10.37,2013-07-05 02:00:00,
2013-07-04 19:01:00,63.3,53.7,30.08,WSW,247,0.1,0.0,71,0.00,CLR,OVC,0.00,WeatherDisplay:10.37,2013-07-05 02:01:00,
2013-07-04 19:02:00,63.3,53.7,30.08,WSW,247,0.1,1.2,71,0.00,CLR,OVC,0.00,WeatherDisplay:10.37,2013-07-05 02:02:00,
2013-07-04 19:05:00,63.1,53.9,30.08,WSW,247,0.2,1.2,72,0.00,CLR,OVC,0.00,WeatherDisplay:10.37,2013-07-05 02:05:00,
2013-07-04 19:06:00,63.1,53.9,30.08,West,265,0.7,3.5,72,0.00,CLR,OVC,0.00,WeatherDisplay:10.37,2013-07-05 02:06:00,
2013-07-04 19:07:00,63.1,53.9,30.08,West,265,0.0,1.2,72,0.00,CLR,OVC,0.00,WeatherDisplay:10.37,2013-07-05 02:07:00,
2013-07-04 19:08:00,63.0,53.8,30.08,West,265,0.1,2.3,72,0.00,CLR,OVC,0.00,WeatherDisplay:10.37,2013-07-05 02:08:00,
2013-07-04 19:10:00,62.9,53.7,30.08,West,261,0.2,1.2,72,0.00,CLR,OVC,0.00,WeatherDisplay:10.37,2013-07-05 02:10:00,
2013-07-04 19:11:00,62.8,53.6,30.08,WSW,247,1.0,3.5,72,0.00,CLR,OVC,0.00,WeatherDisplay:10.37,2013-07-05 02:11:00,
2013-07-04 19:12:00,62.8,53.6,30.08,WNW,302,0.4,2.3,72,0.00,CLR,OVC,0.00,WeatherDisplay:10.37,2013-07-05 02:12:00,
2013-07-04 19:13:00,62.7,53.5,30.08,West,281,0.0,2.3,72,0.00,CLR,OVC,0.00,WeatherDisplay:10.37,2013-07-05 02:13:00,
2013-07-04 19:15:00,62.6,53.1,30.08,North,10,0.0,1.2,71,0.00,CLR,OVC,0.00,WeatherDisplay:10.37,2013-07-05 02:15:00,
2013-07-04 19:16:00,62.5,53.0,30.08,West,273,0.7,2.3,71,0.00,CLR,OVC,0.00,WeatherDisplay:10.37,2013-07-05 02:16:00,
2013-07-04 19:17:00,62.5,53.0,30.08,West,263,0.7,4.0,71,0.00,CLR,OVC,0.00,WeatherDisplay:10.37,2013-07-05 02:17:00,
2013-07-04 19:18:00,62.4,53.3,30.08,West,265,0.1,3.5,72,0.00,CLR,OVC,0.00,WeatherDisplay:10.37,2013-07-05 02:18:00,
2013-07-04 19:19:00,62.3,53.2,30.08,West,263,0.5,2.3,72,0.00,CLR,OVC,0.00,WeatherDisplay:10.37,2013-07-05 02:19:00,
2013-07-04 19:20:00,62.3,53.2,30.08,West,263,0.0,2.3,72,0.00,CLR,OVC,0.00,WeatherDisplay:10.37,2013-07-05 02:20:00,
2013-07-04 19:21:00,62.2,53.1,30.08,West,263,0.0,0.0,72,0.00,CLR,OVC,0.00,WeatherDisplay:10.37,2013-07-05 02:21:00,
2013-07-04 19:22:00,62.2,53.1,30.08,West,263,0.0,0.0,72,0.00,CLR,OVC,0.00,WeatherDisplay:10.37,2013-07-05 02:22:00,
2013-07-04 19:23:00,62.2,53.4,30.08,West,263,0.0,1.2,73,0.00,CLR,OVC,0.00,WeatherDisplay:10.37,2013-07-05 02:23:00,
2013-07-04 19:24:00,62.1,53.0,30.08,West,263,1.3,4.0,72,0.00,CLR,OVC,0.00,WeatherDisplay:10.37,2013-07-05 02:24:00,
2013-07-04 19:25:00,62.0,52.9,30.08,SW,231,2.0,2.3,72,0.00,CLR,OVC,0.00,WeatherDisplay:10.37,2013-07-05 02:25:00,
2013-07-04 19:26:00,62.0,53.2,30.08,SW,231,0.0,4.6,73,0.00,CLR,OVC,0.00,WeatherDisplay:10.37,2013-07-05 02:26:00,
2013-07-04 19:27:00,62.0,53.2,30.08,SW,231,0.0,0.0,73,0.00,CLR,OVC,0.00,WeatherDisplay:10.37,2013-07-05 02:27:00,
2013-07-04 19:28:00,61.9,53.1,30.08,SW,231,0.0,1.2,73,0.00,CLR,OVC,0.00,WeatherDisplay:10.37,2013-07-05 02:28:00,
2013-07-04 19:29:00,61.8,53.1,30.08,SW,231,0.4,0.0,73,0.00,CLR,OVC,0.00,WeatherDisplay:10.37,2013-07-05 02:29:00,
2013-07-04 19:30:00,61.8,53.1,30.08,WSW,246,0.3,3.5,73,0.00,CLR,OVC,0.00,WeatherDisplay:10.37,2013-07-05 02:30:00,
2013-07-04 19:31:00,61.7,53.0,30.08,WSW,246,0.4,2.3,73,0.00,CLR,OVC,0.00,WeatherDisplay:10.37,2013-07-05 02:31:00,
2013-07-04 19:32:00,61.7,53.0,30.08,WSW,247,0.8,3.5,73,0.00,CLR,OVC,0.00,WeatherDisplay:10.37,2013-07-05 02:32:00,
2013-07-04 19:33:00,61.6,53.2,30.08,WSW,247,0.0,1.2,74,0.00,CLR,OVC,0.00,WeatherDisplay:10.37,2013-07-05 02:33:00,
2013-07-04 19:35:00,61.5,53.1,30.08,WSW,247,0.1,0.0,74,0.00,CLR,OVC,0.00,WeatherDisplay:10.37,2013-07-05 02:35:00,
2013-07-04 19:36:00,61.5,53.1,30.08,WSW,247,0.1,1.2,74,0.00,CLR,OVC,0.00,WeatherDisplay:10.37,2013-07-05 02:36:00,
2013-07-04 19:37:00,61.4,53.0,30.08,WSW,247,0.1,0.0,74,0.00,CLR,OVC,0.00,WeatherDisplay:10.37,2013-07-05 02:37:00,
2013-07-04 19:38:00,61.4,53.0,30.08,WSW,239,0.2,2.0,74,0.00,CLR,OVC,0.00,WeatherDisplay:10.37,2013-07-05 02:38:00,
2013-07-04 19:40:00,61.3,52.9,30.08,WSW,242,0.1,2.3,74,0.00,CLR,OVC,0.00,WeatherDisplay:10.37,2013-07-05 02:40:00,
2013-07-04 19:41:00,61.3,52.9,30.08,WSW,249,1.8,4.6,74,0.00,CLR,OVC,0.00,WeatherDisplay:10.37,2013-07-05 02:41:00,
2013-07-04 19:42:00,61.3,52.9,30.08,WSW,249,0.0,5.8,74,0.00,CLR,OVC,0.00,WeatherDisplay:10.37,2013-07-05 02:42:00,
2013-07-04 19:43:00,61.3,53.3,30.08,WSW,249,0.0,0.0,75,0.00,CLR,OVC,0.00,WeatherDisplay:10.37,2013-07-05 02:43:00,
2013-07-04 19:44:00,61.3,53.3,30.08,WSW,249,0.0,0.0,75,0.00,CLR,OVC,0.00,WeatherDisplay:10.37,2013-07-05 02:44:00,
2013-07-04 19:45:00,61.2,53.6,30.08,WSW,249,0.4,1.2,76,0.00,CLR,OVC,0.00,WeatherDisplay:10.37,2013-07-05 02:45:00,
2013-07-04 19:46:00,61.3,53.7,30.08,WSW,249,0.0,1.2,76,0.00,CLR,OVC,0.00,WeatherDisplay:10.37,2013-07-05 02:46:00,
2013-07-04 19:47:00,61.2,53.6,30.08,WSW,249,0.0,0.0,76,0.00,CLR,OVC,0.00,WeatherDisplay:10.37,2013-07-05 02:47:00,
2013-07-04 19:48:00,61.2,53.6,30.08,WSW,249,0.0,0.0,76,0.00,CLR,OVC,0.00,WeatherDisplay:10.37,2013-07-05 02:48:00,
2013-07-04 19:49:00,61.2,53.6,30.08,WSW,249,0.0,1.0,76,0.00,CLR,OVC,0.00,WeatherDisplay:10.37,2013-07-05 02:49:00,
2013-07-04 19:50:00,61.1,53.5,30.08,WSW,249,0.8,2.3,76,0.00,CLR,OVC,0.00,WeatherDisplay:10.37,2013-07-05 02:50:00,
2013-07-04 19:51:00,61.1,53.8,30.08,WSW,249,0.1,3.5,77,0.00,CLR,OVC,0.00,WeatherDisplay:10.37,2013-07-05 02:51:00,
2013-07-04 19:53:00,61.0,53.7,30.08,WSW,249,0.0,1.2,77,0.00,CLR,OVC,0.00,WeatherDisplay:10.37,2013-07-05 02:53:00,
2013-07-04 19:54:00,60.9,53.3,30.08,WSW,249,0.7,1.2,76,0.00,CLR,OVC,0.00,WeatherDisplay:10.37,2013-07-05 02:54:00,
2013-07-04 19:55:00,60.9,53.6,30.08,WSW,249,0.0,3.5,77,0.00,CLR,OVC,0.00,WeatherDisplay:10.37,2013-07-05 02:55:00,
2013-07-04 19:56:00,60.8,53.5,30.08,WSW,249,0.0,1.2,77,0.00,CLR,OVC,0.00,WeatherDisplay:10.37,2013-07-05 02:56:00,
2013-07-04 19:58:00,60.7,53.8,30.08,WSW,249,0.0,1.2,78,0.00,CLR,OVC,0.00,WeatherDisplay:10.37,2013-07-05 02:58:00,
2013-07-04 19:59:00,60.6,53.7,30.08,WSW,248,0.0,1.0,78,0.00,CLR,OVC,0.00,WeatherDisplay:10.37,2013-07-05 02:59:00,
2013-07-04 20:00:00,60.6,53.7,30.08,WSW,248,0.2,0.0,78,0.00,CLR,OVC,0.00,WeatherDisplay:10.37,2013-07-05 03:00:00,
2013-07-04 20:01:00,60.5,53.6,30.08,WSW,248,0.3,1.2,78,0.00,CLR,OVC,0.00,WeatherDisplay:10.37,2013-07-05 03:01:00,
2013-07-04 20:04:00,60.3,53.4,30.08,WSW,249,0.0,0.0,78,0.00,CLR,OVC,0.00,WeatherDisplay:10.37,2013-07-05 03:04:00,
2013-07-04 20:05:00,60.3,53.4,30.08,WSW,249,0.0,0.0,78,0.00,CLR,OVC,0.00,WeatherDisplay:10.37,2013-07-05 03:05:00,
2013-07-04 20:06:00,60.3,53.4,30.08,WSW,249,0.5,3.5,78,0.00,CLR,OVC,0.00,WeatherDisplay:10.37,2013-07-05 03:06:00,
2013-07-04 20:09:00,60.1,53.6,30.08,WSW,249,0.1,1.2,79,0.00,CLR,OVC,0.00,WeatherDisplay:10.37,2013-07-05 03:09:00,
2013-07-04 20:10:00,60.0,53.1,30.08,WSW,249,0.0,1.2,78,0.00,CLR,OVC,0.00,WeatherDisplay:10.37,2013-07-05 03:10:00,
2013-07-04 20:11:00,60.0,53.5,30.08,WSW,249,0.0,0.0,79,0.00,CLR,OVC,0.00,WeatherDisplay:10.37,2013-07-05 03:11:00,
2013-07-04 20:15:00,59.7,53.2,30.08,WSW,250,0.0,0.0,79,0.00,CLR,OVC,0.00,WeatherDisplay:10.37,2013-07-05 03:15:00,
2013-07-04 20:16:00,59.7,53.2,30.08,WSW,250,0.0,0.0,79,0.00,CLR,OVC,0.00,WeatherDisplay:10.37,2013-07-05 03:16:00,
2013-07-04 20:20:00,59.5,53.3,30.08,WSW,250,0.0,0.0,80,0.00,CLR,OVC,0.00,WeatherDisplay:10.37,2013-07-05 03:20:00,
2013-07-04 20:21:00,59.5,53.3,30.08,WSW,250,0.0,0.0,80,0.00,CLR,OVC,0.00,WeatherDisplay:10.37,2013-07-05 03:21:00,
2013-07-04 20:22:00,59.4,53.2,30.08,WSW,250,0.0,1.2,80,0.00,CLR,OVC,0.00,WeatherDisplay:10.37,2013-07-05 03:22:00,
2013-07-04 20:25:00,59.2,53.0,30.08,WSW,251,0.2,1.2,80,0.00,CLR,OVC,0.00,WeatherDisplay:10.37,2013-07-05 03:25:00,
2013-07-04 20:26:00,59.2,53.0,30.08,WSW,251,0.1,1.2,80,0.00,CLR,OVC,0.00,WeatherDisplay:10.37,2013-07-05 03:26:00,
2013-07-04 20:27:00,59.1,52.9,30.08,WSW,251,0.3,1.0,80,0.00,CLR,OVC,0.00,WeatherDisplay:10.37,2013-07-05 03:27:00,
2013-07-04 20:30:00,58.9,53.1,30.08,WSW,251,0.0,0.0,81,0.00,CLR,OVC,0.00,WeatherDisplay:10.37,2013-07-05 03:30:00,
2013-07-04 20:31:00,58.9,53.1,30.08,WSW,251,0.0,0.0,81,0.00,CLR,OVC,0.00,WeatherDisplay:10.37,2013-07-05 03:31:00,
2013-07-04 20:32:00,58.9,52.7,30.08,WSW,251,0.0,0.0,80,0.00,CLR,OVC,0.00,WeatherDisplay:10.37,2013-07-05 03:32:00,
2013-07-04 20:35:00,58.7,52.5,30.08,WSW,251,0.0,0.0,80,0.00,CLR,OVC,0.00,WeatherDisplay:10.37,2013-07-05 03:35:00,
2013-07-04 20:36:00,58.7,52.5,30.08,WSW,251,0.0,0.0,80,0.00,CLR,OVC,0.00,WeatherDisplay:10.37,2013-07-05 03:36:00,
2013-07-04 20:37:00,58.7,52.5,30.08,WSW,251,0.0,1.0,80,0.00,CLR,OVC,0.00,WeatherDisplay:10.37,2013-07-05 03:37:00,
2013-07-04 20:41:00,58.5,52.7,30.08,WSW,251,0.1,0.0,81,0.00,CLR,OVC,0.00,WeatherDisplay:10.37,2013-07-05 03:41:00,
2013-07-04 20:42:00,58.5,52.7,30.08,WSW,251,0.0,1.2,81,0.00,CLR,OVC,0.00,WeatherDisplay:10.37,2013-07-05 03:42:00,
2013-07-04 20:43:00,58.5,52.7,30.08,WSW,251,0.0,1.2,81,0.00,CLR,OVC,0.00,WeatherDisplay:10.37,2013-07-05 03:43:00,
2013-07-04 20:46:00,58.4,52.6,30.08,West,263,0.0,0.0,81,0.00,CLR,OVC,0.00,WeatherDisplay:10.37,2013-07-05 03:46:00,
2013-07-04 20:47:00,58.3,52.5,30.08,West,263,0.1,0.0,81,0.00,CLR,OVC,0.00,WeatherDisplay:10.37,2013-07-05 03:47:00,
2013-07-04 20:48:00,58.3,52.5,30.08,West,263,0.0,1.2,81,0.00,CLR,OVC,0.00,WeatherDisplay:10.37,2013-07-05 03:48:00,
2013-07-04 20:51:00,58.2,52.4,30.08,West,263,0.0,0.0,81,0.00,CLR,OVC,0.00,WeatherDisplay:10.37,2013-07-05 03:51:00,
2013-07-04 20:52:00,58.2,52.4,30.08,West,263,0.0,0.0,81,0.00,CLR,OVC,0.00,WeatherDisplay:10.37,2013-07-05 03:52:00,
2013-07-04 20:53:00,58.1,52.0,30.08,West,263,0.1,0.0,80,0.00,CLR,OVC,0.00,WeatherDisplay:10.37,2013-07-05 03:53:00,
2013-07-04 20:56:00,58.0,52.2,30.08,West,263,0.0,0.0,81,0.00,CLR,OVC,0.00,WeatherDisplay:10.37,2013-07-05 03:56:00,
2013-07-04 20:57:00,58.0,52.2,30.08,West,263,0.0,0.0,81,0.00,CLR,OVC,0.00,WeatherDisplay:10.37,2013-07-05 03:57:00,
2013-07-04 20:58:00,57.9,52.1,30.08,West,263,0.0,0.0,81,0.00,CLR,OVC,0.00,WeatherDisplay:10.37,2013-07-05 03:58:00,
2013-07-04 20:59:00,57.9,52.1,30.08,West,263,0.0,0.0,81,0.00,CLR,OVC,0.00,WeatherDisplay:10.37,2013-07-05 03:59:00,
2013-07-04 21:01:00,57.8,52.0,30.08,West,263,0.1,1.0,81,0.00,CLR,OVC,0.00,WeatherDisplay:10.37,2013-07-05 04:01:00,
2013-07-04 21:06:00,57.6,52.1,30.08,West,263,0.0,0.0,82,0.00,CLR,OVC,0.00,WeatherDisplay:10.37,2013-07-05 04:06:00,
2013-07-04 21:11:00,57.3,51.9,30.08,West,263,0.1,0.0,82,0.00,CLR,OVC,0.00,WeatherDisplay:10.37,2013-07-05 04:11:00,
2013-07-04 21:12:00,57.3,51.9,30.08,West,263,0.1,1.2,82,0.00,CLR,OVC,0.00,WeatherDisplay:10.37,2013-07-05 04:12:00,
2013-07-04 21:13:00,57.2,51.8,30.08,West,263,0.0,0.0,82,0.00,CLR,OVC,0.00,WeatherDisplay:10.37,2013-07-05 04:13:00,
2013-07-04 21:16:00,57.1,51.7,30.08,West,263,0.0,1.0,82,0.00,CLR,OVC,0.00,WeatherDisplay:10.37,2013-07-05 04:16:00,
2013-07-04 21:17:00,57.1,51.7,30.08,West,263,0.1,0.0,82,0.00,CLR,OVC,0.00,WeatherDisplay:10.37,2013-07-05 04:17:00,
2013-07-04 21:18:00,57.1,51.7,30.08,West,263,0.0,1.2,82,0.00,CLR,OVC,0.00,WeatherDisplay:10.37,2013-07-05 04:18:00,
2013-07-04 21:19:00,57.0,51.9,30.08,West,263,0.0,0.0,83,0.00,CLR,OVC,0.00,WeatherDisplay:10.37,2013-07-05 04:19:00,
2013-07-04 21:21:00,56.9,51.8,30.08,West,263,0.0,0.0,83,0.00,CLR,OVC,0.00,WeatherDisplay:10.37,2013-07-05 04:21:00,
2013-07-04 21:22:00,56.9,51.8,30.08,West,263,0.0,0.0,83,0.00,CLR,OVC,0.00,WeatherDisplay:10.37,2013-07-05 04:22:00,
2013-07-04 21:23:00,56.9,51.8,30.08,West,263,0.0,0.0,83,0.00,CLR,OVC,0.00,WeatherDisplay:10.37,2013-07-05 04:23:00,
2013-07-04 21:24:00,56.9,51.8,30.08,West,263,0.0,0.0,83,0.00,CLR,OVC,0.00,WeatherDisplay:10.37,2013-07-05 04:24:00,
2013-07-04 21:27:00,56.8,51.7,30.08,West,263,0.0,0.0,83,0.00,CLR,OVC,0.00,WeatherDisplay:10.37,2013-07-05 04:27:00,
2013-07-04 21:29:00,56.7,51.6,30.08,West,263,0.0,0.0,83,0.00,CLR,OVC,0.00,WeatherDisplay:10.37,2013-07-05 04:29:00,
2013-07-04 21:32:00,56.6,51.5,30.08,West,263,0.5,1.2,83,0.00,CLR,OVC,0.00,WeatherDisplay:10.37,2013-07-05 04:32:00,
2013-07-04 21:33:00,56.6,51.8,30.08,West,263,0.0,1.2,84,0.00,CLR,OVC,0.00,WeatherDisplay:10.37,2013-07-05 04:33:00,
2013-07-04 21:34:00,56.5,51.7,30.08,West,263,0.0,0.0,84,0.00,CLR,OVC,0.00,WeatherDisplay:10.37,2013-07-05 04:34:00,
2013-07-04 21:37:00,56.4,51.6,30.08,West,263,0.0,0.0,84,0.00,CLR,OVC,0.00,WeatherDisplay:10.37,2013-07-05 04:37:00,
2013-07-04 21:38:00,56.4,51.6,30.08,West,263,0.0,0.0,84,0.00,CLR,OVC,0.00,WeatherDisplay:10.37,2013-07-05 04:38:00,
2013-07-04 21:39:00,56.3,51.5,30.08,West,263,0.0,0.0,84,0.00,CLR,OVC,0.00,WeatherDisplay:10.37,2013-07-05 04:39:00,
2013-07-04 21:42:00,56.2,51.7,30.08,West,262,0.0,0.0,85,0.00,CLR,OVC,0.00,WeatherDisplay:10.37,2013-07-05 04:42:00,
2013-07-04 21:43:00,56.2,51.7,30.08,West,262,0.0,0.0,85,0.00,CLR,OVC,0.00,WeatherDisplay:10.37,2013-07-05 04:43:00,
2013-07-04 21:44:00,56.2,51.7,30.08,West,262,0.0,0.0,85,0.00,CLR,OVC,0.00,WeatherDisplay:10.37,2013-07-05 04:44:00,
2013-07-04 21:45:00,56.1,51.7,30.08,West,262,0.0,0.0,85,0.00,CLR,OVC,0.00,WeatherDisplay:10.37,2013-07-05 04:45:00,
2013-07-04 21:48:00,56.0,51.6,30.08,WNW,289,0.0,0.0,85,0.00,CLR,OVC,0.00,WeatherDisplay:10.37,2013-07-05 04:48:00,
2013-07-04 21:49:00,56.0,51.6,30.08,WNW,289,0.0,0.0,85,0.00,CLR,OVC,0.00,WeatherDisplay:10.37,2013-07-05 04:49:00,
2013-07-04 21:50:00,56.0,51.6,30.08,WNW,289,0.0,0.0,85,0.00,CLR,OVC,0.00,WeatherDisplay:10.37,2013-07-05 04:50:00,
2013-07-04 21:53:00,55.9,51.8,30.08,WNW,289,0.1,1.0,86,0.00,CLR,OVC,0.00,WeatherDisplay:10.37,2013-07-05 04:53:00,
2013-07-04 21:54:00,55.9,51.8,30.08,WNW,289,0.0,0.0,86,0.00,CLR,OVC,0.00,WeatherDisplay:10.37,2013-07-05 04:54:00,
2013-07-04 21:55:00,55.9,51.8,30.08,WNW,289,0.0,0.0,86,0.00,CLR,OVC,0.00,WeatherDisplay:10.37,2013-07-05 04:55:00,
2013-07-04 21:58:00,55.8,51.7,30.08,WNW,289,0.0,1.2,86,0.00,CLR,OVC,0.00,WeatherDisplay:10.37,2013-07-05 04:58:00,
2013-07-04 21:59:00,55.8,51.7,30.08,WNW,289,0.0,0.0,86,0.00,CLR,OVC,0.00,WeatherDisplay:10.37,2013-07-05 04:59:00,
2013-07-04 22:00:00,55.8,51.7,30.08,WNW,289,0.0,0.0,86,0.00,CLR,OVC,0.00,WeatherDisplay:10.37,2013-07-05 05:00:00,
2013-07-04 22:01:00,55.8,51.7,30.08,WNW,289,0.0,0.0,86,0.00,CLR,OVC,0.00,WeatherDisplay:10.37,2013-07-05 05:01:00,
2013-07-04 22:03:00,55.6,51.5,30.08,WNW,289,0.0,0.0,86,0.00,CLR,OVC,0.00,WeatherDisplay:10.37,2013-07-05 05:03:00,
2013-07-04 22:04:00,55.7,51.6,30.08,WNW,289,0.0,0.0,86,0.00,CLR,OVC,0.00,WeatherDisplay:10.37,2013-07-05 05:04:00,
2013-07-04 22:05:00,55.6,51.5,30.08,WNW,289,0.0,0.0,86,0.00,CLR,OVC,0.00,WeatherDisplay:10.37,2013-07-05 05:05:00,
2013-07-04 22:06:00,55.6,51.5,30.09,WNW,289,0.0,0.0,86,0.00,CLR,OVC,0.00,WeatherDisplay:10.37,2013-07-05 05:06:00,
2013-07-04 22:09:00,55.5,51.4,30.09,WNW,289,0.0,0.0,86,0.00,CLR,OVC,0.00,WeatherDisplay:10.37,2013-07-05 05:09:00,
2013-07-04 22:10:00,55.5,51.4,30.09,WNW,289,0.0,0.0,86,0.00,CLR,OVC,0.00,WeatherDisplay:10.37,2013-07-05 05:10:00,
2013-07-04 22:11:00,55.5,51.4,30.09,WNW,289,0.0,0.0,86,0.00,CLR,OVC,0.00,WeatherDisplay:10.37,2013-07-05 05:11:00,
2013-07-04 22:14:00,55.4,51.3,30.09,WNW,289,0.0,0.0,86,0.00,CLR,OVC,0.00,WeatherDisplay:10.37,2013-07-05 05:14:00,
2013-07-04 22:15:00,55.4,51.3,30.09,WNW,289,0.0,0.0,86,0.00,CLR,OVC,0.00,WeatherDisplay:10.37,2013-07-05 05:15:00,
2013-07-04 22:16:00,55.4,51.6,30.09,WNW,289,0.0,0.0,87,0.00,CLR,OVC,0.00,WeatherDisplay:10.37,2013-07-05 05:16:00,
2013-07-04 22:19:00,55.3,51.5,30.08,WNW,289,0.0,0.0,87,0.00,CLR,OVC,0.00,WeatherDisplay:10.37,2013-07-05 05:19:00,
2013-07-04 22:20:00,55.3,51.2,30.08,WNW,289,0.0,0.0,86,0.00,CLR,OVC,0.00,WeatherDisplay:10.37,2013-07-05 05:20:00,
2013-07-04 22:21:00,55.3,51.5,30.09,WNW,289,0.0,0.0,87,0.00,CLR,OVC,0.00,WeatherDisplay:10.37,2013-07-05 05:21:00,
2013-07-04 22:24:00,55.2,51.4,30.09,WNW,289,0.0,0.0,87,0.00,CLR,OVC,0.00,WeatherDisplay:10.37,2013-07-05 05:24:00,
2013-07-04 22:25:00,55.2,51.4,30.09,WNW,289,0.0,0.0,87,0.00,CLR,OVC,0.00,WeatherDisplay:10.37,2013-07-05 05:25:00,
2013-07-04 22:26:00,55.1,51.3,30.09,WNW,289,0.0,0.0,87,0.00,CLR,OVC,0.00,WeatherDisplay:10.37,2013-07-05 05:26:00,
2013-07-04 22:29:00,55.1,51.3,30.09,WNW,289,0.0,0.0,87,0.00,CLR,OVC,0.00,WeatherDisplay:10.37,2013-07-05 05:29:00,
2013-07-04 22:30:00,55.1,51.3,30.09,WNW,289,0.0,0.0,87,0.00,CLR,OVC,0.00,WeatherDisplay:10.37,2013-07-05 05:30:00,
2013-07-04 22:31:00,55.1,51.3,30.09,WNW,289,0.0,0.0,87,0.00,CLR,OVC,0.00,WeatherDisplay:10.37,2013-07-05 05:31:00,
2013-07-04 22:35:00,55.0,51.2,30.09,WNW,289,0.1,1.2,87,0.00,CLR,OVC,0.00,WeatherDisplay:10.37,2013-07-05 05:35:00,
2013-07-04 22:36:00,54.9,51.1,30.09,WNW,289,0.0,0.0,87,0.00,CLR,OVC,0.00,WeatherDisplay:10.37,2013-07-05 05:36:00,
2013-07-04 22:37:00,54.9,51.1,30.09,WNW,289,0.0,0.0,87,0.00,CLR,OVC,0.00,WeatherDisplay:10.37,2013-07-05 05:37:00,
2013-07-04 22:40:00,54.9,51.1,30.09,WNW,289,0.0,0.0,87,0.00,CLR,OVC,0.00,WeatherDisplay:10.37,2013-07-05 05:40:00,
2013-07-04 22:41:00,54.8,51.0,30.09,WNW,289,0.0,0.0,87,0.00,CLR,OVC,0.00,WeatherDisplay:10.37,2013-07-05 05:41:00,
2013-07-04 22:42:00,54.8,51.0,30.08,WNW,289,0.0,0.0,87,0.00,CLR,OVC,0.00,WeatherDisplay:10.37,2013-07-05 05:42:00,
2013-07-04 22:45:00,54.8,51.0,30.08,WNW,289,0.0,1.2,87,0.00,CLR,OVC,0.00,WeatherDisplay:10.37,2013-07-05 05:45:00,
2013-07-04 22:46:00,54.8,51.0,30.08,WNW,289,0.0,1.2,87,0.00,CLR,OVC,0.00,WeatherDisplay:10.37,2013-07-05 05:46:00,
2013-07-04 22:47:00,54.7,50.9,30.08,WNW,289,0.0,1.2,87,0.00,CLR,OVC,0.00,WeatherDisplay:10.37,2013-07-05 05:47:00,
2013-07-04 22:48:00,54.7,50.9,30.08,WNW,289,0.0,0.0,87,0.00,CLR,OVC,0.00,WeatherDisplay:10.37,2013-07-05 05:48:00,
2013-07-04 22:50:00,54.6,50.8,30.08,WNW,289,0.0,0.0,87,0.00,CLR,OVC,0.00,WeatherDisplay:10.37,2013-07-05 05:50:00,
2013-07-04 22:51:00,54.6,50.8,30.08,WNW,289,0.0,0.0,87,0.00,CLR,OVC,0.00,WeatherDisplay:10.37,2013-07-05 05:51:00,
2013-07-04 22:52:00,54.6,51.1,30.08,WNW,289,0.4,2.3,88,0.00,CLR,OVC,0.00,WeatherDisplay:10.37,2013-07-05 05:52:00,
2013-07-04 22:54:00,54.6,51.1,30.08,WNW,289,0.0,0.0,88,0.00,CLR,OVC,0.00,WeatherDisplay:10.37,2013-07-05 05:54:00,
2013-07-04 22:55:00,54.6,51.1,30.08,WNW,289,0.0,0.0,88,0.00,CLR,OVC,0.00,WeatherDisplay:10.37,2013-07-05 05:55:00,
2013-07-04 22:56:00,54.5,51.0,30.08,WNW,289,0.0,0.0,88,0.00,CLR,OVC,0.00,WeatherDisplay:10.37,2013-07-05 05:56:00,
2013-07-04 22:57:00,54.5,51.0,30.08,WNW,289,0.0,0.0,88,0.00,CLR,OVC,0.00,WeatherDisplay:10.37,2013-07-05 05:57:00,
2013-07-04 22:59:00,54.5,51.0,30.08,WNW,289,0.0,0.0,88,0.00,CLR,OVC,0.00,WeatherDisplay:10.37,2013-07-05 05:59:00,
2013-07-04 23:00:00,54.4,50.9,30.08,WNW,289,0.0,0.0,88,0.00,CLR,OVC,0.00,WeatherDisplay:10.37,2013-07-05 06:00:00,
2013-07-04 23:01:00,54.4,50.9,30.08,WNW,289,0.0,0.0,88,0.00,CLR,OVC,0.00,WeatherDisplay:10.37,2013-07-05 06:01:00,
2013-07-04 23:03:00,54.4,50.9,30.08,WNW,289,0.0,0.0,88,0.00,CLR,OVC,0.00,WeatherDisplay:10.37,2013-07-05 06:03:00,
2013-07-04 23:04:00,54.4,50.9,30.08,WNW,289,0.0,0.0,88,0.00,CLR,OVC,0.00,WeatherDisplay:10.37,2013-07-05 06:04:00,
2013-07-04 23:05:00,54.4,50.9,30.08,WNW,289,0.0,0.0,88,0.00,CLR,OVC,0.00,WeatherDisplay:10.37,2013-07-05 06:05:00,
2013-07-04 23:06:00,54.4,50.9,30.08,WNW,289,0.0,0.0,88,0.00,CLR,OVC,0.00,WeatherDisplay:10.37,2013-07-05 06:06:00,
2013-07-04 23:08:00,54.3,50.8,30.08,WNW,289,0.0,0.0,88,0.00,CLR,OVC,0.00,WeatherDisplay:10.37,2013-07-05 06:08:00,
2013-07-04 23:10:00,54.2,50.7,30.08,WNW,289,0.0,1.2,88,0.00,CLR,OVC,0.00,WeatherDisplay:10.37,2013-07-05 06:10:00,
2013-07-04 23:11:00,54.2,50.7,30.08,WNW,289,0.0,0.0,88,0.00,CLR,OVC,0.00,WeatherDisplay:10.37,2013-07-05 06:11:00,
2013-07-04 23:14:00,54.2,50.7,30.08,WNW,289,0.0,0.0,88,0.00,CLR,OVC,0.00,WeatherDisplay:10.37,2013-07-05 06:14:00,
2013-07-04 23:15:00,54.2,51.0,30.08,WNW,289,0.0,0.0,89,0.00,CLR,OVC,0.00,WeatherDisplay:10.37,2013-07-05 06:15:00,
2013-07-04 23:16:00,54.1,50.9,30.08,WNW,289,0.0,0.0,89,0.00,CLR,OVC,0.00,WeatherDisplay:10.37,2013-07-05 06:16:00,
2013-07-04 23:17:00,54.1,50.9,30.08,WNW,289,0.0,0.0,89,0.00,CLR,OVC,0.00,WeatherDisplay:10.37,2013-07-05 06:17:00,
2013-07-04 23:19:00,54.0,50.8,30.08,WNW,289,0.1,1.2,89,0.00,CLR,OVC,0.00,WeatherDisplay:10.37,2013-07-05 06:19:00,
2013-07-04 23:20:00,54.0,50.9,30.08,WNW,289,0.0,2.0,89,0.00,CLR,OVC,0.00,WeatherDisplay:10.37,2013-07-05 06:20:00,
2013-07-04 23:21:00,54.0,50.8,30.08,WNW,289,0.0,1.2,89,0.00,CLR,OVC,0.00,WeatherDisplay:10.37,2013-07-05 06:21:00,
2013-07-04 23:22:00,54.0,50.8,30.08,WNW,289,0.0,1.2,89,0.00,CLR,OVC,0.00,WeatherDisplay:10.37,2013-07-05 06:22:00,
2013-07-04 23:24:00,53.9,50.7,30.08,WNW,289,0.1,1.2,89,0.00,CLR,OVC,0.00,WeatherDisplay:10.37,2013-07-05 06:24:00,
2013-07-04 23:25:00,53.9,50.7,30.08,WNW,289,0.1,1.2,89,0.00,CLR,OVC,0.00,WeatherDisplay:10.37,2013-07-05 06:25:00,
2013-07-04 23:26:00,53.9,50.7,30.08,WNW,289,0.0,0.0,89,0.00,CLR,OVC,0.00,WeatherDisplay:10.37,2013-07-05 06:26:00,
2013-07-04 23:27:00,53.8,50.6,30.08,WNW,289,0.0,0.0,89,0.00,CLR,OVC,0.00,WeatherDisplay:10.37,2013-07-05 06:27:00,
2013-07-04 23:29:00,53.8,50.6,30.08,WNW,289,0.0,0.0,89,0.00,CLR,OVC,0.00,WeatherDisplay:10.37,2013-07-05 06:29:00,
2013-07-04 23:30:00,53.8,50.6,30.08,WNW,289,0.0,0.0,89,0.00,CLR,OVC,0.00,WeatherDisplay:10.37,2013-07-05 06:30:00,
2013-07-04 23:31:00,53.8,50.6,30.08,WNW,289,0.0,0.0,89,0.00,CLR,OVC,0.00,WeatherDisplay:10.37,2013-07-05 06:31:00,
2013-07-04 23:33:00,53.7,50.5,30.08,WNW,289,0.0,0.0,89,0.00,CLR,OVC,0.00,WeatherDisplay:10.37,2013-07-05 06:33:00,
2013-07-04 23:35:00,53.7,50.5,30.08,WNW,289,0.4,2.3,89,0.00,CLR,OVC,0.00,WeatherDisplay:10.37,2013-07-05 06:35:00,
2013-07-04 23:36:00,53.7,50.5,30.08,WNW,289,0.2,2.3,89,0.00,CLR,OVC,0.00,WeatherDisplay:10.37,2013-07-05 06:36:00,
2013-07-04 23:37:00,53.7,50.5,30.08,WNW,289,0.0,0.0,89,0.00,CLR,OVC,0.00,WeatherDisplay:10.37,2013-07-05 06:37:00,
2013-07-04 23:38:00,53.7,50.5,30.08,WNW,289,0.0,0.0,89,0.00,CLR,OVC,0.00,WeatherDisplay:10.37,2013-07-05 06:38:00,
2013-07-04 23:41:00,53.6,50.4,30.08,WNW,289,0.3,1.2,89,0.00,CLR,OVC,0.00,WeatherDisplay:10.37,2013-07-05 06:41:00,
2013-07-04 23:42:00,53.6,50.4,30.08,WNW,289,0.0,0.0,89,0.00,CLR,OVC,0.00,WeatherDisplay:10.37,2013-07-05 06:42:00,
2013-07-04 23:43:00,53.6,50.4,30.08,WNW,289,0.0,0.0,89,0.00,CLR,OVC,0.00,WeatherDisplay:10.37,2013-07-05 06:43:00,
2013-07-04 23:46:00,53.6,50.1,30.08,WNW,289,0.0,0.0,88,0.00,CLR,OVC,0.00,WeatherDisplay:10.37,2013-07-05 06:46:00,
2013-07-04 23:47:00,53.6,50.1,30.08,WNW,289,0.0,0.0,88,0.00,CLR,OVC,0.00,WeatherDisplay:10.37,2013-07-05 06:47:00,
2013-07-04 23:48:00,53.6,50.1,30.08,WNW,289,0.0,0.0,88,0.00,CLR,OVC,0.00,WeatherDisplay:10.37,2013-07-05 06:48:00,
2013-07-04 23:51:00,53.5,50.3,30.08,WNW,289,0.0,0.0,89,0.00,CLR,OVC,0.00,WeatherDisplay:10.37,2013-07-05 06:51:00,
2013-07-04 23:52:00,53.5,50.0,30.08,WNW,289,0.0,0.0,88,0.00,CLR,OVC,0.00,WeatherDisplay:10.37,2013-07-05 06:52:00,
2013-07-04 23:53:00,53.5,50.0,30.08,WNW,289,0.0,1.2,88,0.00,CLR,OVC,0.00,WeatherDisplay:10.37,2013-07-05 06:53:00,
2013-07-04 23:54:00,53.5,50.3,30.08,WNW,289,0.0,0.0,89,0.00,CLR,OVC,0.00,WeatherDisplay:10.37,2013-07-05 06:54:00,
2013-07-04 23:56:00,53.5,50.3,30.08,WNW,289,0.0,0.0,89,0.00,CLR,OVC,0.00,WeatherDisplay:10.37,2013-07-05 06:56:00,
2013-07-04 23:57:00,53.4,50.2,30.08,WNW,289,0.1,2.3,89,0.00,CLR,OVC,0.00,WeatherDisplay:10.37,2013-07-05 06:57:00,
2013-07-04 23:58:00,53.4,50.2,30.08,WNW,289,0.3,2.3,89,0.00,CLR,OVC,0.00,WeatherDisplay:10.37,2013-07-05 06:58:00,
2013-07-04 23:59:00,53.4,50.2,30.08,WNW,289,0.0,1.2,89,0.00,CLR,OVC,0.00,WeatherDisplay:10.37,2013-07-05 06:59:00,